Time,TemperatureF,DewpointF,PressureIn,WindDirection,WindDirectionDegrees,WindSpeedMPH,WindSpeedGustMPH,Humidity,HourlyPrecipIn,Conditions,Clouds,dailyrainin,SolarRadiationWatts/m^2,SoftwareType,DateUTC
2013-12-26 00:00:00,24.5,14.1,30.41,NNE,30,1.0,3.0,64,0.00,,SKC,0.00,0.00,VWS V14.01,2013-12-26 05:00:00,
2013-12-26 00:01:00,24.5,14.1,30.41,NNE,30,1.0,3.0,64,0.00,,SKC,0.00,0.00,VWS V14.01,2013-12-26 05:01:00,
2013-12-26 00:06:00,24.5,14.4,30.41,NNE,30,1.0,2.0,65,0.00,,SKC,0.00,0.00,VWS V14.01,2013-12-26 05:06:00,
2013-12-26 00:11:00,24.4,14.3,30.41,NNE,30,1.0,2.0,65,0.00,,SKC,0.00,0.00,VWS V14.01,2013-12-26 05:11:00,
2013-12-26 00:12:00,24.3,14.2,30.41,NNE,30,1.0,2.0,65,0.00,,SKC,0.00,0.00,VWS V14.01,2013-12-26 05:12:00,
2013-12-26 00:16:00,24.2,14.5,30.41,NNE,30,2.0,2.0,66,0.00,,SKC,0.00,0.00,VWS V14.01,2013-12-26 05:16:00,
2013-12-26 00:17:00,24.2,14.5,30.41,NNE,30,3.0,3.0,66,0.00,,SKC,0.00,0.00,VWS V14.01,2013-12-26 05:17:00,
2013-12-26 00:18:00,24.2,14.5,30.41,NNE,29,2.0,3.0,66,0.00,,SKC,0.00,0.00,VWS V14.01,2013-12-26 05:18:00,
2013-12-26 00:21:00,24.2,14.5,30.41,NNE,28,3.0,3.0,66,0.00,,SKC,0.00,0.00,VWS V14.01,2013-12-26 05:21:00,
2013-12-26 00:22:00,24.2,14.5,30.41,NNE,22,2.0,3.0,66,0.00,,SKC,0.00,0.00,VWS V14.01,2013-12-26 05:22:00,
2013-12-26 00:23:00,24.2,14.8,30.41,NNE,22,2.0,3.0,67,0.00,,SKC,0.00,0.00,VWS V14.01,2013-12-26 05:23:00,
2013-12-26 00:26:00,24.0,14.6,30.41,NNE,22,2.0,3.0,67,0.00,,SKC,0.00,0.00,VWS V14.01,2013-12-26 05:26:00,
2013-12-26 00:27:00,24.1,14.7,30.41,NNE,22,1.0,3.0,67,0.00,,SKC,0.00,0.00,VWS V14.01,2013-12-26 05:27:00,
2013-12-26 00:28:00,24.0,14.6,30.41,NNE,22,2.0,3.0,67,0.00,,SKC,0.00,0.00,VWS V14.01,2013-12-26 05:28:00,
2013-12-26 00:32:00,24.0,14.6,30.41,NNE,22,0.0,1.0,67,0.00,,SKC,0.00,0.00,VWS V14.01,2013-12-26 05:32:00,
2013-12-26 00:33:00,24.0,14.6,30.41,NNE,22,0.0,1.0,67,0.00,,SKC,0.00,0.00,VWS V14.01,2013-12-26 05:33:00,
2013-12-26 00:37:00,24.0,14.6,30.41,NNE,22,0.0,1.0,67,0.00,,SKC,0.00,0.00,VWS V14.01,2013-12-26 05:37:00,
2013-12-26 00:38:00,24.0,14.6,30.41,NNE,22,1.0,1.0,67,0.00,,SKC,0.00,0.00,VWS V14.01,2013-12-26 05:38:00,
2013-12-26 00:39:00,24.1,14.4,30.41,NNE,22,2.0,2.0,66,0.00,,SKC,0.00,0.00,VWS V14.01,2013-12-26 05:39:00,
2013-12-26 00:42:00,24.1,14.4,30.40,NNE,22,2.0,3.0,66,0.00,,SKC,0.00,0.00,VWS V14.01,2013-12-26 05:42:00,
2013-12-26 00:43:00,24.0,14.3,30.40,NNE,22,1.0,3.0,66,0.00,,SKC,0.00,0.00,VWS V14.01,2013-12-26 05:43:00,
2013-12-26 00:44:00,24.1,14.4,30.40,NNE,22,1.0,3.0,66,0.00,,SKC,0.00,0.00,VWS V14.01,2013-12-26 05:44:00,
2013-12-26 00:48:00,24.0,14.3,30.40,NNE,22,0.0,3.0,66,0.00,,SKC,0.00,0.00,VWS V14.01,2013-12-26 05:48:00,
2013-12-26 00:49:00,24.0,14.3,30.40,NNE,22,0.0,3.0,66,0.00,,SKC,0.00,0.00,VWS V14.01,2013-12-26 05:49:00,
2013-12-26 00:50:00,24.0,14.3,30.40,NNE,22,0.0,3.0,66,0.00,,SKC,0.00,0.00,VWS V14.01,2013-12-26 05:50:00,
2013-12-26 00:53:00,24.0,14.0,30.40,NNE,22,1.0,3.0,65,0.00,,SKC,0.00,0.00,VWS V14.01,2013-12-26 05:53:00,
2013-12-26 00:54:00,24.0,14.0,30.40,NNE,22,1.0,3.0,65,0.00,,SKC,0.00,0.00,VWS V14.01,2013-12-26 05:54:00,
2013-12-26 00:55:00,24.0,14.0,30.40,NNE,22,1.0,3.0,65,0.00,,SKC,0.00,0.00,VWS V14.01,2013-12-26 05:55:00,
2013-12-26 00:58:00,24.0,14.0,30.40,NNE,22,1.0,3.0,65,0.00,,SKC,0.00,0.00,VWS V14.01,2013-12-26 05:58:00,
2013-12-26 00:59:00,23.9,14.2,30.40,NNE,22,2.0,3.0,66,0.00,,SKC,0.00,0.00,VWS V14.01,2013-12-26 05:59:00,
2013-12-26 01:00:00,23.9,14.2,30.40,NNE,22,2.0,3.0,66,0.00,,SKC,0.00,0.00,VWS V14.01,2013-12-26 06:00:00,
2013-12-26 01:01:00,23.9,14.2,30.40,NNE,22,2.0,3.0,66,0.00,,SKC,0.00,0.00,VWS V14.01,2013-12-26 06:01:00,
2013-12-26 01:03:00,23.9,14.2,30.39,NNE,22,1.0,2.0,66,0.00,,SKC,0.00,0.00,VWS V14.01,2013-12-26 06:03:00,
2013-12-26 01:04:00,23.9,14.2,30.39,NNE,22,0.0,2.0,66,0.00,,SKC,0.00,0.00,VWS V14.01,2013-12-26 06:04:00,
2013-12-26 01:05:00,23.9,14.2,30.39,NNE,22,0.0,2.0,66,0.00,,SKC,0.00,0.00,VWS V14.01,2013-12-26 06:05:00,
2013-12-26 01:06:00,23.8,14.1,30.39,NNE,22,0.0,2.0,66,0.00,,SKC,0.00,0.00,VWS V14.01,2013-12-26 06:06:00,
2013-12-26 01:08:00,23.8,14.1,30.39,NNE,22,0.0,2.0,66,0.00,,SKC,0.00,0.00,VWS V14.01,2013-12-26 06:08:00,
2013-12-26 01:09:00,23.8,13.8,30.39,NNE,22,0.0,2.0,65,0.00,,SKC,0.00,0.00,VWS V14.01,2013-12-26 06:09:00,
2013-12-26 01:10:00,23.8,13.8,30.39,NNE,22,0.0,2.0,65,0.00,,SKC,0.00,0.00,VWS V14.01,2013-12-26 06:10:00,
2013-12-26 01:11:00,23.8,13.8,30.39,NNE,22,0.0,2.0,65,0.00,,SKC,0.00,0.00,VWS V14.01,2013-12-26 06:11:00,
2013-12-26 01:13:00,23.8,14.1,30.39,NNE,22,0.0,2.0,66,0.00,,SKC,0.00,0.00,VWS V14.01,2013-12-26 06:13:00,
2013-12-26 01:14:00,23.7,14.0,30.39,NNE,22,0.0,2.0,66,0.00,,SKC,0.00,0.00,VWS V14.01,2013-12-26 06:14:00,
2013-12-26 01:15:00,23.7,14.0,30.39,NNE,22,0.0,2.0,66,0.00,,SKC,0.00,0.00,VWS V14.01,2013-12-26 06:15:00,
2013-12-26 01:16:00,23.6,13.9,30.39,NNE,22,0.0,2.0,66,0.00,,SKC,0.00,0.00,VWS V14.01,2013-12-26 06:16:00,
2013-12-26 01:17:00,23.7,14.0,30.39,NNE,22,0.0,2.0,66,0.00,,SKC,0.00,0.00,VWS V14.01,2013-12-26 06:17:00,
2013-12-26 01:18:00,23.6,14.3,30.39,NNE,22,1.0,2.0,67,0.00,,SKC,0.00,0.00,VWS V14.01,2013-12-26 06:18:00,
2013-12-26 01:19:00,23.6,14.3,30.39,NNE,22,0.0,2.0,67,0.00,,SKC,0.00,0.00,VWS V14.01,2013-12-26 06:19:00,
2013-12-26 01:20:00,23.6,14.3,30.39,NNE,22,0.0,2.0,67,0.00,,SKC,0.00,0.00,VWS V14.01,2013-12-26 06:20:00,
2013-12-26 01:21:00,23.5,14.2,30.39,NNE,22,0.0,2.0,67,0.00,,SKC,0.00,0.00,VWS V14.01,2013-12-26 06:21:00,
2013-12-26 01:22:00,23.5,14.2,30.39,NNE,22,1.0,2.0,67,0.00,,SKC,0.00,0.00,VWS V14.01,2013-12-26 06:22:00,
2013-12-26 01:23:00,23.5,14.2,30.39,NNE,22,2.0,2.0,67,0.00,,SKC,0.00,0.00,VWS V14.01,2013-12-26 06:23:00,
2013-12-26 01:24:00,23.4,14.1,30.39,NNE,22,1.0,2.0,67,0.00,,SKC,0.00,0.00,VWS V14.01,2013-12-26 06:24:00,
2013-12-26 01:25:00,23.4,14.1,30.39,NNE,22,2.0,2.0,67,0.00,,SKC,0.00,0.00,VWS V14.01,2013-12-26 06:25:00,
2013-12-26 01:27:00,23.4,14.1,30.39,NNE,22,2.0,2.0,67,0.00,,SKC,0.00,0.00,VWS V14.01,2013-12-26 06:27:00,
2013-12-26 01:28:00,23.4,14.1,30.39,NNE,22,1.0,2.0,67,0.00,,SKC,0.00,0.00,VWS V14.01,2013-12-26 06:28:00,
2013-12-26 01:29:00,23.4,14.1,30.39,NNE,22,3.0,3.0,67,0.00,,SKC,0.00,0.00,VWS V14.01,2013-12-26 06:29:00,
2013-12-26 01:31:00,23.4,14.1,30.39,NNE,22,0.0,3.0,67,0.00,,SKC,0.00,0.00,VWS V14.01,2013-12-26 06:31:00,
2013-12-26 01:32:00,23.4,14.1,30.39,NNE,22,0.0,0.0,67,0.00,,SKC,0.00,0.00,VWS V14.01,2013-12-26 06:32:00,
2013-12-26 01:33:00,23.3,14.0,30.39,NNE,22,2.0,2.0,67,0.00,,SKC,0.00,0.00,VWS V14.01,2013-12-26 06:33:00,
2013-12-26 01:34:00,23.3,14.0,30.39,NNE,22,1.0,2.0,67,0.00,,SKC,0.00,0.00,VWS V14.01,2013-12-26 06:34:00,
2013-12-26 01:35:00,23.3,14.0,30.39,NNE,22,2.0,2.0,67,0.00,,SKC,0.00,0.00,VWS V14.01,2013-12-26 06:35:00,
2013-12-26 01:36:00,23.3,14.0,30.39,NNE,22,1.0,2.0,67,0.00,,SKC,0.00,0.00,VWS V14.01,2013-12-26 06:36:00,
2013-12-26 01:37:00,23.3,14.3,30.39,NNE,22,2.0,2.0,68,0.00,,SKC,0.00,0.00,VWS V14.01,2013-12-26 06:37:00,
2013-12-26 01:38:00,23.3,14.0,30.39,NNE,22,2.0,3.0,67,0.00,,SKC,0.00,0.00,VWS V14.01,2013-12-26 06:38:00,
2013-12-26 01:39:00,23.3,14.3,30.39,NNE,22,3.0,3.0,68,0.00,,SKC,0.00,0.00,VWS V14.01,2013-12-26 06:39:00,
2013-12-26 01:40:00,23.3,14.3,30.39,NNE,22,2.0,3.0,68,0.00,,SKC,0.00,0.00,VWS V14.01,2013-12-26 06:40:00,
2013-12-26 01:42:00,23.3,14.3,30.39,NNE,22,1.0,3.0,68,0.00,,SKC,0.00,0.00,VWS V14.01,2013-12-26 06:42:00,
2013-12-26 01:44:00,23.3,14.0,30.39,NNE,22,1.0,3.0,67,0.00,,SKC,0.00,0.00,VWS V14.01,2013-12-26 06:44:00,
2013-12-26 01:46:00,23.3,14.0,30.39,NNE,22,0.0,3.0,67,0.00,,SKC,0.00,0.00,VWS V14.01,2013-12-26 06:46:00,
2013-12-26 01:47:00,23.4,14.1,30.39,NNE,22,1.0,3.0,67,0.00,,SKC,0.00,0.00,VWS V14.01,2013-12-26 06:47:00,
2013-12-26 01:49:00,23.4,14.1,30.39,NNE,22,2.0,3.0,67,0.00,,SKC,0.00,0.00,VWS V14.01,2013-12-26 06:49:00,
2013-12-26 01:50:00,23.5,14.5,30.39,NNE,22,1.0,3.0,68,0.00,,SKC,0.00,0.00,VWS V14.01,2013-12-26 06:50:00,
2013-12-26 01:52:00,23.5,14.5,30.39,NNE,22,1.0,3.0,68,0.00,,SKC,0.00,0.00,VWS V14.01,2013-12-26 06:52:00,
2013-12-26 01:53:00,23.5,14.5,30.39,NNE,22,0.0,3.0,68,0.00,,SKC,0.00,0.00,VWS V14.01,2013-12-26 06:53:00,
2013-12-26 01:54:00,23.5,14.5,30.39,NNE,22,2.0,3.0,68,0.00,,SKC,0.00,0.00,VWS V14.01,2013-12-26 06:54:00,
2013-12-26 01:56:00,23.5,14.5,30.39,NNE,22,1.0,3.0,68,0.00,,SKC,0.00,0.00,VWS V14.01,2013-12-26 06:56:00,
2013-12-26 01:57:00,23.5,14.5,30.38,NNE,22,2.0,3.0,68,0.00,,SKC,0.00,0.00,VWS V14.01,2013-12-26 06:57:00,
2013-12-26 01:58:00,23.4,14.4,30.39,NNE,22,2.0,3.0,68,0.00,,SKC,0.00,0.00,VWS V14.01,2013-12-26 06:58:00,
2013-12-26 01:59:00,23.4,14.4,30.39,NNE,22,1.0,3.0,68,0.00,,SKC,0.00,0.00,VWS V14.01,2013-12-26 06:59:00,
2013-12-26 02:00:00,23.4,14.4,30.39,NNE,22,1.0,3.0,68,0.00,,SKC,0.00,0.00,VWS V14.01,2013-12-26 07:00:00,
2013-12-26 02:01:00,23.4,14.4,30.39,NNE,22,1.0,3.0,68,0.00,,SKC,0.00,0.00,VWS V14.01,2013-12-26 07:01:00,
2013-12-26 02:03:00,23.3,14.0,30.39,NNE,22,0.0,2.0,67,0.00,,SKC,0.00,0.00,VWS V14.01,2013-12-26 07:03:00,
2013-12-26 02:04:00,23.3,14.3,30.38,NNE,22,0.0,2.0,68,0.00,,SKC,0.00,0.00,VWS V14.01,2013-12-26 07:04:00,
2013-12-26 02:05:00,23.3,14.3,30.38,NNE,22,0.0,2.0,68,0.00,,SKC,0.00,0.00,VWS V14.01,2013-12-26 07:05:00,
2013-12-26 02:06:00,23.2,14.2,30.38,NNE,22,0.0,2.0,68,0.00,,SKC,0.00,0.00,VWS V14.01,2013-12-26 07:06:00,
2013-12-26 02:08:00,23.1,13.8,30.39,NNE,22,0.0,2.0,67,0.00,,SKC,0.00,0.00,VWS V14.01,2013-12-26 07:08:00,
2013-12-26 02:09:00,23.1,13.8,30.39,NNE,22,2.0,2.0,67,0.00,,SKC,0.00,0.00,VWS V14.01,2013-12-26 07:09:00,
2013-12-26 02:10:00,23.1,13.8,30.39,NNE,22,3.0,3.0,67,0.00,,SKC,0.00,0.00,VWS V14.01,2013-12-26 07:10:00,
2013-12-26 02:11:00,23.1,13.8,30.39,NNE,22,2.0,3.0,67,0.00,,SKC,0.00,0.00,VWS V14.01,2013-12-26 07:11:00,
2013-12-26 02:13:00,23.0,13.7,30.39,NNE,22,1.0,3.0,67,0.00,,SKC,0.00,0.00,VWS V14.01,2013-12-26 07:13:00,
2013-12-26 02:14:00,23.1,13.8,30.39,NNE,22,2.0,3.0,67,0.00,,SKC,0.00,0.00,VWS V14.01,2013-12-26 07:14:00,
2013-12-26 02:15:00,23.0,14.0,30.39,NNE,22,0.0,3.0,68,0.00,,SKC,0.00,0.00,VWS V14.01,2013-12-26 07:15:00,
2013-12-26 02:16:00,23.0,14.0,30.39,NNE,22,1.0,3.0,68,0.00,,SKC,0.00,0.00,VWS V14.01,2013-12-26 07:16:00,
2013-12-26 02:18:00,23.0,14.0,30.39,NNE,22,0.0,3.0,68,0.00,,SKC,0.00,0.00,VWS V14.01,2013-12-26 07:18:00,
2013-12-26 02:20:00,23.0,14.0,30.39,NNE,22,0.0,3.0,68,0.00,,SKC,0.00,0.00,VWS V14.01,2013-12-26 07:20:00,
2013-12-26 02:21:00,23.0,14.0,30.39,NNE,22,2.0,3.0,68,0.00,,SKC,0.00,0.00,VWS V14.01,2013-12-26 07:21:00,
2013-12-26 02:22:00,23.0,14.0,30.39,NNE,22,2.0,3.0,68,0.00,,SKC,0.00,0.00,VWS V14.01,2013-12-26 07:22:00,
2013-12-26 02:23:00,23.0,14.0,30.39,NNE,22,1.0,3.0,68,0.00,,SKC,0.00,0.00,VWS V14.01,2013-12-26 07:23:00,
2013-12-26 02:25:00,22.9,13.9,30.39,NNE,22,1.0,3.0,68,0.00,,SKC,0.00,0.00,VWS V14.01,2013-12-26 07:25:00,
2013-12-26 02:26:00,22.9,13.9,30.39,NNE,22,2.0,3.0,68,0.00,,SKC,0.00,0.00,VWS V14.01,2013-12-26 07:26:00,
2013-12-26 02:27:00,22.9,14.3,30.39,NNE,22,1.0,3.0,69,0.00,,SKC,0.00,0.00,VWS V14.01,2013-12-26 07:27:00,
2013-12-26 02:29:00,22.8,14.2,30.38,NNE,22,1.0,3.0,69,0.00,,SKC,0.00,0.00,VWS V14.01,2013-12-26 07:29:00,
2013-12-26 02:31:00,22.7,14.1,30.38,NNE,22,0.0,3.0,69,0.00,,SKC,0.00,0.00,VWS V14.01,2013-12-26 07:31:00,
2013-12-26 02:32:00,22.7,14.1,30.38,NNE,22,0.0,0.0,69,0.00,,SKC,0.00,0.00,VWS V14.01,2013-12-26 07:32:00,
2013-12-26 02:34:00,22.7,14.1,30.38,NNE,22,0.0,0.0,69,0.00,,SKC,0.00,0.00,VWS V14.01,2013-12-26 07:34:00,
2013-12-26 02:36:00,22.7,13.7,30.38,NNE,22,0.0,0.0,68,0.00,,SKC,0.00,0.00,VWS V14.01,2013-12-26 07:36:00,
2013-12-26 02:37:00,22.7,13.7,30.38,NNE,22,0.0,0.0,68,0.00,,SKC,0.00,0.00,VWS V14.01,2013-12-26 07:37:00,
2013-12-26 02:38:00,22.7,13.7,30.38,NNE,22,0.0,0.0,68,0.00,,SKC,0.00,0.00,VWS V14.01,2013-12-26 07:38:00,
2013-12-26 02:39:00,22.8,13.8,30.38,NNE,22,0.0,0.0,68,0.00,,SKC,0.00,0.00,VWS V14.01,2013-12-26 07:39:00,
2013-12-26 02:41:00,22.7,13.7,30.38,NNE,22,1.0,2.0,68,0.00,,SKC,0.00,0.00,VWS V14.01,2013-12-26 07:41:00,
2013-12-26 02:42:00,22.7,13.7,30.38,NNE,22,2.0,2.0,68,0.00,,SKC,0.00,0.00,VWS V14.01,2013-12-26 07:42:00,
2013-12-26 02:43:00,22.7,13.7,30.38,NNE,22,2.0,2.0,68,0.00,,SKC,0.00,0.00,VWS V14.01,2013-12-26 07:43:00,
2013-12-26 02:44:00,22.7,13.4,30.38,NNE,22,1.0,2.0,67,0.00,,SKC,0.00,0.00,VWS V14.01,2013-12-26 07:44:00,
2013-12-26 02:46:00,22.7,13.7,30.38,NNE,22,1.0,2.0,68,0.00,,SKC,0.00,0.00,VWS V14.01,2013-12-26 07:46:00,
2013-12-26 02:47:00,22.7,13.7,30.38,NNE,22,1.0,2.0,68,0.00,,SKC,0.00,0.00,VWS V14.01,2013-12-26 07:47:00,
2013-12-26 02:48:00,22.7,13.7,30.38,NNE,22,2.0,2.0,68,0.00,,SKC,0.00,0.00,VWS V14.01,2013-12-26 07:48:00,
2013-12-26 02:49:00,22.7,13.7,30.38,NNE,22,1.0,2.0,68,0.00,,SKC,0.00,0.00,VWS V14.01,2013-12-26 07:49:00,
2013-12-26 02:51:00,22.7,13.7,30.38,NNE,22,0.0,2.0,68,0.00,,SKC,0.00,0.00,VWS V14.01,2013-12-26 07:51:00,
2013-12-26 02:52:00,22.7,13.7,30.38,NNE,22,0.0,2.0,68,0.00,,SKC,0.00,0.00,VWS V14.01,2013-12-26 07:52:00,
2013-12-26 02:53:00,22.7,13.7,30.38,NNE,22,0.0,2.0,68,0.00,,SKC,0.00,0.00,VWS V14.01,2013-12-26 07:53:00,
2013-12-26 02:54:00,22.7,13.7,30.38,NNE,22,0.0,2.0,68,0.00,,SKC,0.00,0.00,VWS V14.01,2013-12-26 07:54:00,
2013-12-26 02:55:00,22.7,13.7,30.38,NNE,22,0.0,2.0,68,0.00,,SKC,0.00,0.00,VWS V14.01,2013-12-26 07:55:00,
2013-12-26 02:57:00,22.6,13.6,30.38,NNE,22,0.0,2.0,68,0.00,,SKC,0.00,0.00,VWS V14.01,2013-12-26 07:57:00,
2013-12-26 02:58:00,22.6,14.0,30.38,NNE,22,0.0,2.0,69,0.00,,SKC,0.00,0.00,VWS V14.01,2013-12-26 07:58:00,
2013-12-26 03:00:00,22.6,14.0,30.38,NNE,22,0.0,2.0,69,0.00,,SKC,0.00,0.00,VWS V14.01,2013-12-26 08:00:00,
2013-12-26 03:02:00,22.6,14.0,30.37,NNE,22,0.0,1.0,69,0.00,,SKC,0.00,0.00,VWS V14.01,2013-12-26 08:02:00,
2013-12-26 03:03:00,22.6,14.0,30.37,NNE,22,0.0,1.0,69,0.00,,SKC,0.00,0.00,VWS V14.01,2013-12-26 08:03:00,
2013-12-26 03:05:00,22.7,14.1,30.37,NNE,22,0.0,1.0,69,0.00,,SKC,0.00,0.00,VWS V14.01,2013-12-26 08:05:00,
2013-12-26 03:07:00,22.7,14.1,30.37,NNE,22,1.0,1.0,69,0.00,,SKC,0.00,0.00,VWS V14.01,2013-12-26 08:07:00,
2013-12-26 03:09:00,22.7,14.1,30.37,NNE,22,1.0,1.0,69,0.00,,SKC,0.00,0.00,VWS V14.01,2013-12-26 08:09:00,
2013-12-26 03:10:00,22.7,14.1,30.37,NNE,22,0.0,1.0,69,0.00,,SKC,0.00,0.00,VWS V14.01,2013-12-26 08:10:00,
2013-12-26 03:13:00,22.7,13.7,30.37,NNE,22,0.0,1.0,68,0.00,,SKC,0.00,0.00,VWS V14.01,2013-12-26 08:13:00,
2013-12-26 03:14:00,22.8,14.2,30.37,NNE,22,0.0,1.0,69,0.00,,SKC,0.00,0.00,VWS V14.01,2013-12-26 08:14:00,
2013-12-26 03:15:00,22.8,14.2,30.37,NNE,22,0.0,1.0,69,0.00,,SKC,0.00,0.00,VWS V14.01,2013-12-26 08:15:00,
2013-12-26 03:16:00,22.8,14.2,30.37,NNE,22,0.0,1.0,69,0.00,,SKC,0.00,0.00,VWS V14.01,2013-12-26 08:16:00,
2013-12-26 03:18:00,22.8,14.2,30.36,NNE,22,0.0,1.0,69,0.00,,SKC,0.00,0.00,VWS V14.01,2013-12-26 08:18:00,
2013-12-26 03:20:00,22.8,14.2,30.37,NNE,22,0.0,1.0,69,0.00,,SKC,0.00,0.00,VWS V14.01,2013-12-26 08:20:00,
2013-12-26 03:21:00,22.9,14.3,30.36,NNE,22,0.0,1.0,69,0.00,,SKC,0.00,0.00,VWS V14.01,2013-12-26 08:21:00,
2013-12-26 03:23:00,22.9,14.3,30.36,NNE,22,0.0,1.0,69,0.00,,SKC,0.00,0.00,VWS V14.01,2013-12-26 08:23:00,
2013-12-26 03:24:00,22.9,14.3,30.36,NNE,22,0.0,1.0,69,0.00,,SKC,0.00,0.00,VWS V14.01,2013-12-26 08:24:00,
2013-12-26 03:25:00,22.9,14.3,30.36,NNE,22,0.0,1.0,69,0.00,,SKC,0.00,0.00,VWS V14.01,2013-12-26 08:25:00,
2013-12-26 03:26:00,22.8,14.5,30.36,NNE,22,0.0,1.0,70,0.00,,SKC,0.00,0.00,VWS V14.01,2013-12-26 08:26:00,
2013-12-26 03:28:00,22.8,14.5,30.36,NNE,22,0.0,1.0,70,0.00,,SKC,0.00,0.00,VWS V14.01,2013-12-26 08:28:00,
2013-12-26 03:29:00,22.7,14.4,30.36,NNE,22,1.0,1.0,70,0.00,,SKC,0.00,0.00,VWS V14.01,2013-12-26 08:29:00,
2013-12-26 03:30:00,22.7,14.4,30.36,NNE,22,2.0,2.0,70,0.00,,SKC,0.00,0.00,VWS V14.01,2013-12-26 08:30:00,
2013-12-26 03:31:00,22.7,14.4,30.36,NNE,22,2.0,2.0,70,0.00,,SKC,0.00,0.00,VWS V14.01,2013-12-26 08:31:00,
2013-12-26 03:33:00,22.6,14.6,30.36,NNE,22,2.0,3.0,71,0.00,,SKC,0.00,0.00,VWS V14.01,2013-12-26 08:33:00,
2013-12-26 03:35:00,22.5,14.9,30.36,NNE,22,1.0,3.0,72,0.00,,SKC,0.00,0.00,VWS V14.01,2013-12-26 08:35:00,
2013-12-26 03:36:00,22.4,15.1,30.36,NNE,22,1.0,3.0,73,0.00,,SKC,0.00,0.00,VWS V14.01,2013-12-26 08:36:00,
2013-12-26 03:37:00,22.4,15.1,30.36,NNE,22,0.0,3.0,73,0.00,,SKC,0.00,0.00,VWS V14.01,2013-12-26 08:37:00,
2013-12-26 03:38:00,22.3,15.0,30.36,NNE,22,0.0,3.0,73,0.00,,SKC,0.00,0.00,VWS V14.01,2013-12-26 08:38:00,
2013-12-26 03:40:00,22.3,15.0,30.36,NNE,22,0.0,3.0,73,0.00,,SKC,0.00,0.00,VWS V14.01,2013-12-26 08:40:00,
2013-12-26 03:42:00,22.2,15.2,30.36,NNE,22,0.0,3.0,74,0.00,,SKC,0.00,0.00,VWS V14.01,2013-12-26 08:42:00,
2013-12-26 03:43:00,22.1,15.1,30.36,NNE,22,0.0,3.0,74,0.00,,SKC,0.00,0.00,VWS V14.01,2013-12-26 08:43:00,
2013-12-26 03:45:00,22.1,15.4,30.36,NNE,22,0.0,3.0,75,0.00,,SKC,0.00,0.00,VWS V14.01,2013-12-26 08:45:00,
2013-12-26 03:46:00,22.0,15.6,30.36,NNE,22,0.0,3.0,76,0.00,,SKC,0.00,0.00,VWS V14.01,2013-12-26 08:46:00,
2013-12-26 03:47:00,22.0,15.6,30.36,NNE,22,0.0,3.0,76,0.00,,SKC,0.00,0.00,VWS V14.01,2013-12-26 08:47:00,
2013-12-26 03:48:00,22.0,15.6,30.36,NNE,22,0.0,3.0,76,0.00,,SKC,0.00,0.00,VWS V14.01,2013-12-26 08:48:00,
2013-12-26 03:51:00,22.0,15.6,30.36,NNE,22,1.0,3.0,76,0.00,,SKC,0.00,0.00,VWS V14.01,2013-12-26 08:51:00,
2013-12-26 03:52:00,22.1,15.7,30.36,NNE,22,1.0,3.0,76,0.00,,SKC,0.00,0.00,VWS V14.01,2013-12-26 08:52:00,
2013-12-26 03:54:00,22.1,15.7,30.36,NNE,22,2.0,3.0,76,0.00,,SKC,0.00,0.00,VWS V14.01,2013-12-26 08:54:00,
2013-12-26 03:56:00,22.1,15.7,30.36,NNE,22,0.0,3.0,76,0.00,,SKC,0.00,0.00,VWS V14.01,2013-12-26 08:56:00,
2013-12-26 03:57:00,22.2,15.8,30.36,NNE,22,0.0,3.0,76,0.00,,SKC,0.00,0.00,VWS V14.01,2013-12-26 08:57:00,
2013-12-26 03:58:00,22.2,15.8,30.36,NNE,22,0.0,3.0,76,0.00,,SKC,0.00,0.00,VWS V14.01,2013-12-26 08:58:00,
2013-12-26 03:59:00,22.2,15.8,30.35,NNE,22,0.0,3.0,76,0.00,,SKC,0.00,0.00,VWS V14.01,2013-12-26 08:59:00,
2013-12-26 04:01:00,22.3,16.2,30.35,NNE,22,0.0,0.0,77,0.00,,SKC,0.00,0.00,VWS V14.01,2013-12-26 09:01:00,
2013-12-26 04:02:00,22.3,16.2,30.35,NNE,22,1.0,1.0,77,0.00,,SKC,0.00,0.00,VWS V14.01,2013-12-26 09:02:00,
2013-12-26 04:03:00,22.3,16.2,30.35,NNE,22,0.0,1.0,77,0.00,,SKC,0.00,0.00,VWS V14.01,2013-12-26 09:03:00,
2013-12-26 04:04:00,22.4,16.0,30.35,NNE,22,2.0,2.0,76,0.00,,SKC,0.00,0.00,VWS V14.01,2013-12-26 09:04:00,
2013-12-26 04:05:00,22.4,16.3,30.35,NNE,22,2.0,2.0,77,0.00,,SKC,0.00,0.00,VWS V14.01,2013-12-26 09:05:00,
2013-12-26 04:07:00,22.4,16.6,30.36,NNE,22,3.0,3.0,78,0.00,,SKC,0.00,0.00,VWS V14.01,2013-12-26 09:07:00,
2013-12-26 04:08:00,22.4,16.6,30.36,North,5,3.0,4.0,78,0.00,,SKC,0.00,0.00,VWS V14.01,2013-12-26 09:08:00,
2013-12-26 04:09:00,22.4,16.6,30.36,North,5,1.0,4.0,78,0.00,,SKC,0.00,0.00,VWS V14.01,2013-12-26 09:09:00,
2013-12-26 04:10:00,22.4,16.6,30.36,North,5,3.0,4.0,78,0.00,,SKC,0.00,0.00,VWS V14.01,2013-12-26 09:10:00,
2013-12-26 04:12:00,22.4,16.6,30.35,North,5,0.0,4.0,78,0.00,,SKC,0.00,0.00,VWS V14.01,2013-12-26 09:12:00,
2013-12-26 04:13:00,22.4,16.6,30.35,North,5,0.0,4.0,78,0.00,,SKC,0.00,0.00,VWS V14.01,2013-12-26 09:13:00,
2013-12-26 04:14:00,22.5,16.7,30.35,North,5,0.0,4.0,78,0.00,,SKC,0.00,0.00,VWS V14.01,2013-12-26 09:14:00,
2013-12-26 04:15:00,22.5,16.7,30.35,North,5,0.0,4.0,78,0.00,,SKC,0.00,0.00,VWS V14.01,2013-12-26 09:15:00,
2013-12-26 04:16:00,22.5,16.7,30.35,North,5,0.0,4.0,78,0.00,,SKC,0.00,0.00,VWS V14.01,2013-12-26 09:16:00,
2013-12-26 04:17:00,22.5,17.0,30.35,North,5,0.0,4.0,79,0.00,,SKC,0.00,0.00,VWS V14.01,2013-12-26 09:17:00,
2013-12-26 04:18:00,22.6,17.1,30.35,North,5,2.0,4.0,79,0.00,,SKC,0.00,0.00,VWS V14.01,2013-12-26 09:18:00,
2013-12-26 04:19:00,22.6,17.1,30.35,North,5,1.0,4.0,79,0.00,,SKC,0.00,0.00,VWS V14.01,2013-12-26 09:19:00,
2013-12-26 04:20:00,22.6,16.8,30.35,North,5,0.0,4.0,78,0.00,,SKC,0.00,0.00,VWS V14.01,2013-12-26 09:20:00,
2013-12-26 04:22:00,22.6,16.8,30.35,North,5,0.0,4.0,78,0.00,,SKC,0.00,0.00,VWS V14.01,2013-12-26 09:22:00,
2013-12-26 04:23:00,22.7,16.6,30.35,North,5,0.0,4.0,77,0.00,,SKC,0.00,0.00,VWS V14.01,2013-12-26 09:23:00,
2013-12-26 04:25:00,22.8,16.7,30.35,North,5,0.0,4.0,77,0.00,,SKC,0.00,0.00,VWS V14.01,2013-12-26 09:25:00,
2013-12-26 04:26:00,22.9,17.1,30.35,North,5,0.0,4.0,78,0.00,,SKC,0.00,0.00,VWS V14.01,2013-12-26 09:26:00,
2013-12-26 04:27:00,22.9,17.1,30.35,North,5,0.0,4.0,78,0.00,,SKC,0.00,0.00,VWS V14.01,2013-12-26 09:27:00,
2013-12-26 04:28:00,22.9,17.1,30.35,North,5,0.0,4.0,78,0.00,,SKC,0.00,0.00,VWS V14.01,2013-12-26 09:28:00,
2013-12-26 04:30:00,22.9,17.1,30.35,North,5,0.0,4.0,78,0.00,,SKC,0.00,0.00,VWS V14.01,2013-12-26 09:30:00,
2013-12-26 04:32:00,23.0,17.5,30.35,North,5,0.0,0.0,79,0.00,,SKC,0.00,0.00,VWS V14.01,2013-12-26 09:32:00,
2013-12-26 04:33:00,23.0,17.5,30.35,North,5,0.0,0.0,79,0.00,,SKC,0.00,0.00,VWS V14.01,2013-12-26 09:33:00,
2013-12-26 04:34:00,22.9,17.4,30.34,North,5,0.0,0.0,79,0.00,,SKC,0.00,0.00,VWS V14.01,2013-12-26 09:34:00,
2013-12-26 04:35:00,23.0,17.8,30.34,North,5,0.0,0.0,80,0.00,,SKC,0.00,0.00,VWS V14.01,2013-12-26 09:35:00,
2013-12-26 04:36:00,22.9,17.7,30.34,North,5,0.0,0.0,80,0.00,,SKC,0.00,0.00,VWS V14.01,2013-12-26 09:36:00,
2013-12-26 04:37:00,22.9,17.7,30.34,North,5,0.0,0.0,80,0.00,,SKC,0.00,0.00,VWS V14.01,2013-12-26 09:37:00,
2013-12-26 04:38:00,22.9,17.7,30.34,North,5,1.0,1.0,80,0.00,,SKC,0.00,0.00,VWS V14.01,2013-12-26 09:38:00,
2013-12-26 04:39:00,22.9,17.7,30.34,North,5,0.0,1.0,80,0.00,,SKC,0.00,0.00,VWS V14.01,2013-12-26 09:39:00,
2013-12-26 04:41:00,22.9,17.7,30.34,North,5,0.0,1.0,80,0.00,,SKC,0.00,0.00,VWS V14.01,2013-12-26 09:41:00,
2013-12-26 04:43:00,22.9,17.7,30.34,North,5,0.0,1.0,80,0.00,,SKC,0.00,0.00,VWS V14.01,2013-12-26 09:43:00,
2013-12-26 04:44:00,22.8,17.6,30.34,North,5,1.0,1.0,80,0.00,,SKC,0.00,0.00,VWS V14.01,2013-12-26 09:44:00,
2013-12-26 04:45:00,22.8,17.6,30.34,North,5,0.0,1.0,80,0.00,,SKC,0.00,0.00,VWS V14.01,2013-12-26 09:45:00,
2013-12-26 04:46:00,22.8,17.6,30.34,North,5,0.0,1.0,80,0.00,,SKC,0.00,0.00,VWS V14.01,2013-12-26 09:46:00,
2013-12-26 04:48:00,22.8,17.9,30.35,North,5,1.0,1.0,81,0.00,,SKC,0.00,0.00,VWS V14.01,2013-12-26 09:48:00,
2013-12-26 04:50:00,22.7,17.8,30.35,North,5,0.0,2.0,81,0.00,,SKC,0.00,0.00,VWS V14.01,2013-12-26 09:50:00,
2013-12-26 04:51:00,22.7,18.0,30.35,North,5,2.0,3.0,82,0.00,,SKC,0.00,0.00,VWS V14.01,2013-12-26 09:51:00,
2013-12-26 04:53:00,22.7,18.0,30.35,North,5,1.0,3.0,82,0.00,,SKC,0.00,0.00,VWS V14.01,2013-12-26 09:53:00,
2013-12-26 04:55:00,22.7,18.0,30.34,ESE,106,3.0,3.0,82,0.00,,SKC,0.00,0.00,VWS V14.01,2013-12-26 09:55:00,
2013-12-26 04:56:00,22.7,17.8,30.35,ESE,106,0.0,3.0,81,0.00,,SKC,0.00,0.00,VWS V14.01,2013-12-26 09:56:00,
2013-12-26 04:58:00,22.8,17.9,30.34,ESE,106,0.0,3.0,81,0.00,,SKC,0.00,0.00,VWS V14.01,2013-12-26 09:58:00,
2013-12-26 05:00:00,22.8,17.9,30.34,ESE,107,0.0,3.0,81,0.00,,SKC,0.00,0.00,VWS V14.01,2013-12-26 10:00:00,
2013-12-26 05:01:00,22.9,18.0,30.34,ESE,106,1.0,3.0,81,0.00,,SKC,0.00,0.00,VWS V14.01,2013-12-26 10:01:00,
2013-12-26 05:03:00,22.8,18.1,30.34,ESE,106,0.0,2.0,82,0.00,,SKC,0.00,0.00,VWS V14.01,2013-12-26 10:03:00,
2013-12-26 05:05:00,22.8,18.1,30.34,ESE,107,1.0,2.0,82,0.00,,SKC,0.00,0.00,VWS V14.01,2013-12-26 10:05:00,
2013-12-26 05:06:00,22.8,18.1,30.34,ESE,107,1.0,2.0,82,0.00,,SKC,0.00,0.00,VWS V14.01,2013-12-26 10:06:00,
2013-12-26 05:07:00,22.7,18.0,30.33,ESE,107,1.0,2.0,82,0.00,,SKC,0.00,0.00,VWS V14.01,2013-12-26 10:07:00,
2013-12-26 05:08:00,22.7,18.0,30.33,ESE,107,0.0,2.0,82,0.00,,SKC,0.00,0.00,VWS V14.01,2013-12-26 10:08:00,
2013-12-26 05:09:00,22.7,18.0,30.33,ESE,106,0.0,2.0,82,0.00,,SKC,0.00,0.00,VWS V14.01,2013-12-26 10:09:00,
2013-12-26 05:11:00,22.6,17.9,30.33,ESE,107,0.0,2.0,82,0.00,,SKC,0.00,0.00,VWS V14.01,2013-12-26 10:11:00,
2013-12-26 05:12:00,22.6,17.9,30.33,ESE,107,1.0,2.0,82,0.00,,SKC,0.00,0.00,VWS V14.01,2013-12-26 10:12:00,
2013-12-26 05:13:00,22.6,17.9,30.33,ESE,107,1.0,2.0,82,0.00,,SKC,0.00,0.00,VWS V14.01,2013-12-26 10:13:00,
2013-12-26 05:14:00,22.6,17.9,30.33,ESE,106,0.0,2.0,82,0.00,,SKC,0.00,0.00,VWS V14.01,2013-12-26 10:14:00,
2013-12-26 05:16:00,22.5,17.9,30.34,ESE,106,0.0,2.0,82,0.00,,SKC,0.00,0.00,VWS V14.01,2013-12-26 10:16:00,
2013-12-26 05:17:00,22.5,17.9,30.34,ESE,106,0.0,2.0,82,0.00,,SKC,0.00,0.00,VWS V14.01,2013-12-26 10:17:00,
2013-12-26 05:18:00,22.4,17.8,30.33,ESE,123,4.0,4.0,82,0.00,,SKC,0.00,0.00,VWS V14.01,2013-12-26 10:18:00,
2013-12-26 05:19:00,22.4,17.8,30.33,ESE,123,3.0,4.0,82,0.00,,SKC,0.00,0.00,VWS V14.01,2013-12-26 10:19:00,
2013-12-26 05:21:00,22.3,17.6,30.33,ESE,122,0.0,4.0,82,0.00,,SKC,0.00,0.00,VWS V14.01,2013-12-26 10:21:00,
2013-12-26 05:22:00,22.3,17.6,30.33,ESE,123,2.0,4.0,82,0.00,,SKC,0.00,0.00,VWS V14.01,2013-12-26 10:22:00,
2013-12-26 05:23:00,22.3,17.6,30.33,ESE,123,1.0,4.0,82,0.00,,SKC,0.00,0.00,VWS V14.01,2013-12-26 10:23:00,
2013-12-26 05:24:00,22.3,17.6,30.33,ESE,123,2.0,4.0,82,0.00,,SKC,0.00,0.00,VWS V14.01,2013-12-26 10:24:00,
2013-12-26 05:26:00,22.4,17.5,30.33,SE,136,0.0,4.0,81,0.00,,SKC,0.00,0.00,VWS V14.01,2013-12-26 10:26:00,
2013-12-26 05:27:00,22.4,17.5,30.33,SE,136,0.0,4.0,81,0.00,,SKC,0.00,0.00,VWS V14.01,2013-12-26 10:27:00,
2013-12-26 05:29:00,22.4,17.5,30.33,SE,136,0.0,4.0,81,0.00,,SKC,0.00,0.00,VWS V14.01,2013-12-26 10:29:00,
2013-12-26 05:30:00,22.4,17.5,30.33,SE,136,1.0,4.0,81,0.00,,SKC,0.00,0.00,VWS V14.01,2013-12-26 10:30:00,
2013-12-26 05:32:00,22.5,17.6,30.33,SE,136,4.0,4.0,81,0.00,,SKC,0.00,0.00,VWS V14.01,2013-12-26 10:32:00,
2013-12-26 05:33:00,22.5,17.6,30.33,SE,139,0.0,4.0,81,0.00,,SKC,0.00,0.00,VWS V14.01,2013-12-26 10:33:00,
2013-12-26 05:34:00,22.5,17.6,30.33,SE,139,2.0,4.0,81,0.00,,SKC,0.00,0.00,VWS V14.01,2013-12-26 10:34:00,
2013-12-26 05:35:00,22.5,17.6,30.33,SE,145,2.0,5.0,81,0.00,,SKC,0.00,0.00,VWS V14.01,2013-12-26 10:35:00,
2013-12-26 05:36:00,22.5,17.6,30.33,SSW,194,4.0,5.0,81,0.00,,SKC,0.00,0.00,VWS V14.01,2013-12-26 10:36:00,
2013-12-26 05:37:00,22.5,17.6,30.33,SSE,154,4.0,5.0,81,0.00,,SKC,0.00,0.00,VWS V14.01,2013-12-26 10:37:00,
2013-12-26 05:38:00,22.5,17.6,30.33,SSE,148,4.0,6.0,81,0.00,,SKC,0.00,0.00,VWS V14.01,2013-12-26 10:38:00,
2013-12-26 05:39:00,22.6,17.7,30.33,SSE,148,0.0,6.0,81,0.00,,SKC,0.00,0.00,VWS V14.01,2013-12-26 10:39:00,
2013-12-26 05:40:00,22.6,17.7,30.33,SSE,148,2.0,6.0,81,0.00,,SKC,0.00,0.00,VWS V14.01,2013-12-26 10:40:00,
2013-12-26 05:41:00,22.6,17.7,30.33,SSE,148,1.0,6.0,81,0.00,,SKC,0.00,0.00,VWS V14.01,2013-12-26 10:41:00,
2013-12-26 05:42:00,22.6,17.7,30.33,SSE,148,0.0,6.0,81,0.00,,SKC,0.00,0.00,VWS V14.01,2013-12-26 10:42:00,
2013-12-26 05:43:00,22.6,17.7,30.33,SSE,148,0.0,6.0,81,0.00,,SKC,0.00,0.00,VWS V14.01,2013-12-26 10:43:00,
2013-12-26 05:44:00,22.6,17.7,30.33,SSE,148,1.0,6.0,81,0.00,,SKC,0.00,0.00,VWS V14.01,2013-12-26 10:44:00,
2013-12-26 05:45:00,22.6,17.7,30.33,SSE,148,0.0,6.0,81,0.00,,SKC,0.00,0.00,VWS V14.01,2013-12-26 10:45:00,
2013-12-26 05:46:00,22.7,17.8,30.33,SSE,148,0.0,6.0,81,0.00,,SKC,0.00,0.00,VWS V14.01,2013-12-26 10:46:00,
2013-12-26 05:47:00,22.7,17.8,30.33,SSE,148,0.0,6.0,81,0.00,,SKC,0.00,0.00,VWS V14.01,2013-12-26 10:47:00,
2013-12-26 05:48:00,22.7,17.8,30.33,SSE,148,0.0,6.0,81,0.00,,SKC,0.00,0.00,VWS V14.01,2013-12-26 10:48:00,
2013-12-26 05:50:00,22.8,17.9,30.33,SSE,148,1.0,6.0,81,0.00,,SKC,0.00,0.00,VWS V14.01,2013-12-26 10:50:00,
2013-12-26 05:51:00,22.8,17.9,30.34,SSW,193,1.0,6.0,81,0.00,,SKC,0.00,0.00,VWS V14.01,2013-12-26 10:51:00,
2013-12-26 05:53:00,23.0,18.0,30.33,SSW,193,0.0,6.0,81,0.00,,SKC,0.00,0.00,VWS V14.01,2013-12-26 10:53:00,
2013-12-26 05:55:00,23.3,18.1,30.34,SSW,194,0.0,6.0,80,0.00,,SKC,0.00,0.00,VWS V14.01,2013-12-26 10:55:00,
2013-12-26 05:56:00,23.5,18.2,30.34,SSW,200,2.0,6.0,80,0.00,,SKC,0.00,0.00,VWS V14.01,2013-12-26 10:56:00,
2013-12-26 05:57:00,23.6,18.1,30.34,WSW,238,2.0,6.0,79,0.00,,SKC,0.00,0.00,VWS V14.01,2013-12-26 10:57:00,
2013-12-26 05:58:00,23.9,18.4,30.34,SW,234,1.0,6.0,79,0.00,,SKC,0.00,0.00,VWS V14.01,2013-12-26 10:58:00,
2013-12-26 06:01:00,24.2,18.0,30.34,SSW,205,0.0,0.0,77,0.00,,SKC,0.00,0.00,VWS V14.01,2013-12-26 11:01:00,
2013-12-26 06:02:00,24.3,18.1,30.34,SSW,202,2.0,2.0,77,0.00,,SKC,0.00,0.00,VWS V14.01,2013-12-26 11:02:00,
2013-12-26 06:03:00,24.3,17.8,30.34,SSW,202,0.0,4.0,76,0.00,,SKC,0.00,0.00,VWS V14.01,2013-12-26 11:03:00,
2013-12-26 06:04:00,24.4,17.9,30.34,North,349,1.0,4.0,76,0.00,,SKC,0.00,0.00,VWS V14.01,2013-12-26 11:04:00,
2013-12-26 06:07:00,25.4,17.3,30.34,West,273,2.0,12.0,71,0.00,,SKC,0.00,0.00,VWS V14.01,2013-12-26 11:07:00,
2013-12-26 06:08:00,26.0,17.2,30.34,WSW,243,3.0,12.0,69,0.00,,SKC,0.00,0.00,VWS V14.01,2013-12-26 11:08:00,
2013-12-26 06:09:00,26.2,17.4,30.34,West,271,7.0,12.0,69,0.00,,SKC,0.00,0.00,VWS V14.01,2013-12-26 11:09:00,
2013-12-26 06:12:00,27.2,17.0,30.34,West,267,4.0,12.0,65,0.00,,SKC,0.00,0.00,VWS V14.01,2013-12-26 11:12:00,
2013-12-26 06:13:00,27.2,17.4,30.34,WSW,248,4.0,12.0,66,0.00,,SKC,0.00,0.00,VWS V14.01,2013-12-26 11:13:00,
2013-12-26 06:14:00,27.2,17.4,30.34,WSW,256,3.0,12.0,66,0.00,,SKC,0.00,0.00,VWS V14.01,2013-12-26 11:14:00,
2013-12-26 06:15:00,27.0,17.2,30.34,WSW,248,4.0,12.0,66,0.00,,SKC,0.00,0.00,VWS V14.01,2013-12-26 11:15:00,
2013-12-26 06:18:00,27.2,17.0,30.33,SW,229,3.0,12.0,65,0.00,,SKC,0.00,0.00,VWS V14.01,2013-12-26 11:18:00,
2013-12-26 06:19:00,27.4,16.8,30.33,SW,229,3.0,12.0,64,0.00,,SKC,0.00,0.00,VWS V14.01,2013-12-26 11:19:00,
2013-12-26 06:20:00,27.6,16.7,30.33,SW,233,4.0,12.0,63,0.00,,SKC,0.00,0.00,VWS V14.01,2013-12-26 11:20:00,
2013-12-26 06:23:00,27.9,16.6,30.33,SW,232,2.0,12.0,62,0.00,,SKC,0.00,0.00,VWS V14.01,2013-12-26 11:23:00,
2013-12-26 06:24:00,27.9,16.6,30.34,SW,230,1.0,12.0,62,0.00,,SKC,0.00,0.00,VWS V14.01,2013-12-26 11:24:00,
2013-12-26 06:25:00,27.9,16.6,30.34,SW,231,4.0,12.0,62,0.00,,SKC,0.00,0.00,VWS V14.01,2013-12-26 11:25:00,
2013-12-26 06:28:00,27.8,16.5,30.34,SW,232,5.0,12.0,62,0.00,,SKC,0.00,0.00,VWS V14.01,2013-12-26 11:28:00,
2013-12-26 06:29:00,27.8,16.5,30.34,SW,226,4.0,12.0,62,0.00,,SKC,0.00,0.00,VWS V14.01,2013-12-26 11:29:00,
2013-12-26 06:31:00,27.9,16.2,30.34,SW,219,5.0,12.0,61,0.00,,SKC,0.00,0.00,VWS V14.01,2013-12-26 11:31:00,
2013-12-26 06:33:00,27.8,16.1,30.34,SW,215,5.0,9.0,61,0.00,,SKC,0.00,0.00,VWS V14.01,2013-12-26 11:33:00,
2013-12-26 06:34:00,27.8,16.1,30.34,SSW,213,3.0,9.0,61,0.00,,SKC,0.00,0.00,VWS V14.01,2013-12-26 11:34:00,
2013-12-26 06:37:00,27.6,16.3,30.33,SW,226,6.0,9.0,62,0.00,,SKC,0.00,0.00,VWS V14.01,2013-12-26 11:37:00,
2013-12-26 06:38:00,27.7,16.0,30.33,SW,216,0.0,9.0,61,0.00,,SKC,0.00,0.00,VWS V14.01,2013-12-26 11:38:00,
2013-12-26 06:39:00,27.8,16.1,30.33,SW,216,0.0,9.0,61,0.00,,SKC,0.00,0.00,VWS V14.01,2013-12-26 11:39:00,
2013-12-26 06:40:00,27.7,16.0,30.34,SSW,211,3.0,9.0,61,0.00,,SKC,0.00,0.00,VWS V14.01,2013-12-26 11:40:00,
2013-12-26 06:42:00,27.5,16.2,30.34,SW,232,8.0,9.0,62,0.00,,SKC,0.00,0.00,VWS V14.01,2013-12-26 11:42:00,
2013-12-26 06:44:00,27.6,16.3,30.34,SW,221,3.0,9.0,62,0.00,,SKC,0.00,0.00,VWS V14.01,2013-12-26 11:44:00,
2013-12-26 06:45:00,27.6,16.3,30.34,SW,221,4.0,9.0,62,0.00,,SKC,0.00,0.00,VWS V14.01,2013-12-26 11:45:00,
2013-12-26 06:47:00,27.6,16.3,30.34,SW,226,7.0,9.0,62,0.00,,SKC,0.00,0.00,VWS V14.01,2013-12-26 11:47:00,
2013-12-26 06:49:00,27.6,16.3,30.34,SW,225,4.0,9.0,62,0.00,,SKC,0.00,0.00,VWS V14.01,2013-12-26 11:49:00,
2013-12-26 06:50:00,27.6,16.3,30.34,SW,224,4.0,9.0,62,0.00,,SKC,0.00,0.00,VWS V14.01,2013-12-26 11:50:00,
2013-12-26 06:52:00,27.6,16.7,30.34,SW,224,7.0,9.0,63,0.00,,SKC,0.00,0.00,VWS V14.01,2013-12-26 11:52:00,
2013-12-26 06:54:00,27.8,16.5,30.34,SW,232,6.0,9.0,62,0.00,,SKC,0.00,0.00,VWS V14.01,2013-12-26 11:54:00,
2013-12-26 06:55:00,27.8,16.5,30.34,WSW,237,2.0,9.0,62,0.00,,SKC,0.00,0.00,VWS V14.01,2013-12-26 11:55:00,
2013-12-26 06:58:00,27.7,16.4,30.34,WSW,238,0.0,9.0,62,0.00,,SKC,0.00,0.00,VWS V14.01,2013-12-26 11:58:00,
2013-12-26 06:59:00,27.7,16.8,30.34,WSW,238,0.0,9.0,63,0.00,,SKC,0.00,0.00,VWS V14.01,2013-12-26 11:59:00,
2013-12-26 07:00:00,27.6,16.7,30.34,WSW,238,1.0,9.0,63,0.00,,SKC,0.00,0.00,VWS V14.01,2013-12-26 12:00:00,
2013-12-26 07:01:00,27.6,16.7,30.34,SW,236,3.0,9.0,63,0.00,,SKC,0.00,0.00,VWS V14.01,2013-12-26 12:01:00,
2013-12-26 07:02:00,27.6,16.7,30.33,SW,233,2.0,4.0,63,0.00,,SKC,0.00,0.00,VWS V14.01,2013-12-26 12:02:00,
2013-12-26 07:03:00,27.6,16.7,30.33,SW,233,1.0,4.0,63,0.00,,SKC,0.00,0.00,VWS V14.01,2013-12-26 12:03:00,
2013-12-26 07:05:00,27.6,17.0,30.34,SW,233,0.0,4.0,64,0.00,,SKC,0.00,0.00,VWS V14.01,2013-12-26 12:05:00,
2013-12-26 07:06:00,27.6,17.0,30.34,SW,233,0.0,4.0,64,0.00,,SKC,0.00,0.00,VWS V14.01,2013-12-26 12:06:00,
2013-12-26 07:07:00,27.5,17.3,30.33,SW,231,3.0,5.0,65,0.00,,SKC,0.00,0.00,VWS V14.01,2013-12-26 12:07:00,
2013-12-26 07:09:00,27.6,17.0,30.33,SW,231,3.0,5.0,64,0.00,,SKC,0.00,0.00,VWS V14.01,2013-12-26 12:09:00,
2013-12-26 07:10:00,27.6,17.0,30.33,SW,231,2.0,5.0,64,0.00,,SKC,0.00,0.00,VWS V14.01,2013-12-26 12:10:00,
2013-12-26 07:11:00,27.6,17.0,30.33,SW,231,2.0,5.0,64,0.00,,SKC,0.00,0.00,VWS V14.01,2013-12-26 12:11:00,
2013-12-26 07:12:00,27.7,17.5,30.33,SW,231,0.0,5.0,65,0.00,,SKC,0.00,0.00,VWS V14.01,2013-12-26 12:12:00,
2013-12-26 07:14:00,27.7,17.8,30.33,SW,231,0.0,5.0,66,0.00,,SKC,0.00,0.00,VWS V14.01,2013-12-26 12:14:00,
2013-12-26 07:15:00,27.6,18.1,30.33,SW,231,0.0,5.0,67,0.00,,SKC,0.00,0.00,VWS V14.01,2013-12-26 12:15:00,
2013-12-26 07:16:00,27.6,18.1,30.33,SW,231,0.0,5.0,67,0.00,,SKC,0.00,0.00,VWS V14.01,2013-12-26 12:16:00,
2013-12-26 07:17:00,27.6,18.4,30.33,SW,231,0.0,5.0,68,0.00,,SKC,0.00,0.00,VWS V14.01,2013-12-26 12:17:00,
2013-12-26 07:19:00,27.4,18.2,30.33,SW,231,2.0,5.0,68,0.00,,SKC,0.00,0.00,VWS V14.01,2013-12-26 12:19:00,
2013-12-26 07:21:00,27.4,18.2,30.33,SW,231,0.0,5.0,68,0.00,,SKC,0.00,0.00,VWS V14.01,2013-12-26 12:21:00,
2013-12-26 07:22:00,27.2,18.4,30.33,SW,231,1.0,5.0,69,0.00,,SKC,0.00,0.00,VWS V14.01,2013-12-26 12:22:00,
2013-12-26 07:25:00,27.2,18.4,30.33,West,264,3.0,6.0,69,0.00,,SKC,0.00,0.00,VWS V14.01,2013-12-26 12:25:00,
2013-12-26 07:26:00,27.4,18.6,30.33,SSW,213,3.0,7.0,69,0.00,,SKC,0.00,0.00,VWS V14.01,2013-12-26 12:26:00,
2013-12-26 07:27:00,27.6,18.1,30.33,SW,231,4.0,8.0,67,0.00,,SKC,0.00,0.00,VWS V14.01,2013-12-26 12:27:00,
2013-12-26 07:28:00,27.8,18.3,30.33,SW,229,3.0,8.0,67,0.00,,SKC,0.00,0.00,VWS V14.01,2013-12-26 12:28:00,
2013-12-26 07:31:00,27.9,19.1,30.33,NW,304,2.0,3.0,69,0.00,,SKC,0.00,0.00,VWS V14.01,2013-12-26 12:31:00,
2013-12-26 07:32:00,27.8,19.0,30.33,NW,319,2.0,3.0,69,0.00,,SKC,0.00,0.00,VWS V14.01,2013-12-26 12:32:00,
2013-12-26 07:33:00,27.7,19.2,30.33,NW,321,0.0,3.0,70,0.00,,SKC,0.00,0.00,VWS V14.01,2013-12-26 12:33:00,
2013-12-26 07:37:00,27.5,19.4,30.33,NNW,339,3.0,4.0,71,0.00,,SKC,0.00,0.00,VWS V14.01,2013-12-26 12:37:00,
2013-12-26 07:38:00,27.4,18.9,30.33,NNW,339,0.0,4.0,70,0.00,,SKC,0.00,0.00,VWS V14.01,2013-12-26 12:38:00,
2013-12-26 07:42:00,27.3,18.8,30.33,NNW,338,0.0,4.0,70,0.00,,SKC,0.00,0.00,VWS V14.01,2013-12-26 12:42:00,
2013-12-26 07:43:00,27.2,18.7,30.33,NNW,338,0.0,4.0,70,0.00,,SKC,0.00,0.00,VWS V14.01,2013-12-26 12:43:00,
2013-12-26 07:44:00,27.2,18.7,30.33,NNW,338,0.0,4.0,70,0.00,,SKC,0.00,5.00,VWS V14.01,2013-12-26 12:44:00,
2013-12-26 07:46:00,27.2,18.7,30.33,West,269,3.0,4.0,70,0.00,,SKC,0.00,5.00,VWS V14.01,2013-12-26 12:46:00,
2013-12-26 07:47:00,27.3,18.8,30.33,WSW,245,6.0,6.0,70,0.00,,SKC,0.00,5.00,VWS V14.01,2013-12-26 12:47:00,
2013-12-26 07:48:00,27.4,19.2,30.33,SW,222,5.0,6.0,71,0.00,,SKC,0.00,5.00,VWS V14.01,2013-12-26 12:48:00,
2013-12-26 07:49:00,27.5,19.4,30.33,SW,222,0.0,6.0,71,0.00,,SKC,0.00,5.00,VWS V14.01,2013-12-26 12:49:00,
2013-12-26 07:52:00,28.6,19.4,30.32,SSW,203,3.0,11.0,68,0.00,,SKC,0.00,7.00,VWS V14.01,2013-12-26 12:52:00,
2013-12-26 07:53:00,28.9,19.7,30.32,SSW,207,4.0,11.0,68,0.00,,SKC,0.00,9.00,VWS V14.01,2013-12-26 12:53:00,
2013-12-26 07:54:00,29.1,19.5,30.33,SW,220,3.0,11.0,67,0.00,,SKC,0.00,9.00,VWS V14.01,2013-12-26 12:54:00,
2013-12-26 07:55:00,29.7,19.8,30.32,SW,221,5.0,11.0,66,0.00,,SKC,0.00,12.00,VWS V14.01,2013-12-26 12:55:00,
2013-12-26 07:57:00,29.6,19.3,30.32,SW,214,5.0,11.0,65,0.00,,SKC,0.00,12.00,VWS V14.01,2013-12-26 12:57:00,
2013-12-26 07:58:00,29.7,19.0,30.32,SW,221,3.0,11.0,64,0.00,,SKC,0.00,12.00,VWS V14.01,2013-12-26 12:58:00,
2013-12-26 07:59:00,29.7,19.0,30.32,SW,223,5.0,11.0,64,0.00,,SKC,0.00,12.00,VWS V14.01,2013-12-26 12:59:00,
2013-12-26 08:00:00,30.0,19.7,30.32,SSW,209,7.0,11.0,65,0.00,,SKC,0.00,14.00,VWS V14.01,2013-12-26 13:00:00,
2013-12-26 08:02:00,30.4,19.7,30.32,WSW,246,3.0,7.0,64,0.00,,SKC,0.00,23.00,VWS V14.01,2013-12-26 13:02:00,
2013-12-26 08:03:00,30.7,19.6,30.33,WSW,239,1.0,7.0,63,0.00,,SKC,0.00,23.00,VWS V14.01,2013-12-26 13:03:00,
2013-12-26 08:04:00,30.8,19.3,30.32,SW,227,8.0,8.0,62,0.00,,SKC,0.00,23.00,VWS V14.01,2013-12-26 13:04:00,
2013-12-26 08:05:00,31.1,19.6,30.32,West,268,7.0,11.0,62,0.00,,SKC,0.00,26.00,VWS V14.01,2013-12-26 13:05:00,
2013-12-26 08:07:00,31.6,19.7,30.32,WSW,254,3.0,11.0,61,0.00,,SKC,0.00,28.00,VWS V14.01,2013-12-26 13:07:00,
2013-12-26 08:09:00,32.1,19.8,30.33,West,273,6.0,11.0,60,0.00,,SKC,0.00,28.00,VWS V14.01,2013-12-26 13:09:00,
2013-12-26 08:10:00,32.5,19.8,30.33,WSW,254,3.0,11.0,59,0.00,,SKC,0.00,33.00,VWS V14.01,2013-12-26 13:10:00,
2013-12-26 08:12:00,32.6,20.3,30.33,SW,229,8.0,11.0,60,0.00,,SKC,0.00,40.00,VWS V14.01,2013-12-26 13:12:00,
2013-12-26 08:14:00,33.1,19.9,30.33,WSW,254,4.0,11.0,58,0.00,,SKC,0.00,44.00,VWS V14.01,2013-12-26 13:14:00,
2013-12-26 08:15:00,32.9,20.2,30.33,WSW,244,3.0,11.0,59,0.00,,SKC,0.00,46.00,VWS V14.01,2013-12-26 13:15:00,
2013-12-26 08:16:00,32.7,20.4,30.33,WSW,244,0.0,11.0,60,0.00,,SKC,0.00,47.00,VWS V14.01,2013-12-26 13:16:00,
2013-12-26 08:17:00,32.6,20.3,30.33,NNW,338,7.0,11.0,60,0.00,,SKC,0.00,47.00,VWS V14.01,2013-12-26 13:17:00,
2013-12-26 08:19:00,32.8,20.5,30.33,WSW,246,5.0,11.0,60,0.00,,SKC,0.00,44.00,VWS V14.01,2013-12-26 13:19:00,
2013-12-26 08:20:00,32.9,20.5,30.33,NW,306,12.0,12.0,60,0.00,,SKC,0.00,44.00,VWS V14.01,2013-12-26 13:20:00,
2013-12-26 08:21:00,33.2,20.4,30.33,WNW,288,5.0,12.0,59,0.00,,SKC,0.00,37.00,VWS V14.01,2013-12-26 13:21:00,
2013-12-26 08:22:00,33.6,20.8,30.33,NW,311,15.0,15.0,59,0.00,,SKC,0.00,33.00,VWS V14.01,2013-12-26 13:22:00,
2013-12-26 08:24:00,34.3,21.1,30.33,WSW,240,1.0,17.0,58,0.00,,SKC,0.00,28.00,VWS V14.01,2013-12-26 13:24:00,
2013-12-26 08:25:00,34.4,21.2,30.33,West,260,8.0,17.0,58,0.00,,SKC,0.00,28.00,VWS V14.01,2013-12-26 13:25:00,
2013-12-26 08:26:00,34.6,21.0,30.33,NW,322,4.0,17.0,57,0.00,,SKC,0.00,26.00,VWS V14.01,2013-12-26 13:26:00,
2013-12-26 08:28:00,34.9,21.2,30.33,West,266,3.0,17.0,57,0.00,,SKC,0.00,23.00,VWS V14.01,2013-12-26 13:28:00,
2013-12-26 08:30:00,35.3,21.2,30.33,WSW,242,7.0,17.0,56,0.00,,SKC,0.00,23.00,VWS V14.01,2013-12-26 13:30:00,
2013-12-26 08:31:00,35.6,21.5,30.33,West,261,7.0,17.0,56,0.00,,SKC,0.00,23.00,VWS V14.01,2013-12-26 13:31:00,
2013-12-26 08:33:00,35.8,21.6,30.33,WNW,297,11.0,15.0,56,0.00,,SKC,0.00,23.00,VWS V14.01,2013-12-26 13:33:00,
2013-12-26 08:35:00,36.1,21.5,30.33,West,263,11.0,19.0,55,0.00,,SKC,0.00,25.00,VWS V14.01,2013-12-26 13:35:00,
2013-12-26 08:36:00,36.3,21.7,30.33,West,259,9.0,19.0,55,0.00,,SKC,0.00,46.00,VWS V14.01,2013-12-26 13:36:00,
2013-12-26 08:38:00,36.5,21.9,30.32,WNW,301,6.0,19.0,55,0.00,,SKC,0.00,81.00,VWS V14.01,2013-12-26 13:38:00,
2013-12-26 08:40:00,36.8,22.2,30.32,West,265,16.0,19.0,55,0.00,,SKC,0.00,62.00,VWS V14.01,2013-12-26 13:40:00,
2013-12-26 08:41:00,36.9,21.8,30.32,West,279,12.0,19.0,54,0.00,,SKC,0.00,62.00,VWS V14.01,2013-12-26 13:41:00,
2013-12-26 08:42:00,37.0,21.9,30.33,West,267,7.0,19.0,54,0.00,,SKC,0.00,109.00,VWS V14.01,2013-12-26 13:42:00,
2013-12-26 08:43:00,37.1,22.0,30.33,West,263,11.0,19.0,54,0.00,,SKC,0.00,113.00,VWS V14.01,2013-12-26 13:43:00,
2013-12-26 08:45:00,37.5,22.4,30.33,West,267,8.0,19.0,54,0.00,,SKC,0.00,121.00,VWS V14.01,2013-12-26 13:45:00,
2013-12-26 08:46:00,37.5,21.9,30.33,WNW,284,7.0,19.0,53,0.00,,SKC,0.00,121.00,VWS V14.01,2013-12-26 13:46:00,
2013-12-26 08:47:00,37.6,22.0,30.33,West,265,8.0,19.0,53,0.00,,SKC,0.00,125.00,VWS V14.01,2013-12-26 13:47:00,
2013-12-26 08:48:00,37.8,22.2,30.33,NW,326,8.0,19.0,53,0.00,,SKC,0.00,130.00,VWS V14.01,2013-12-26 13:48:00,
2013-12-26 08:49:00,37.8,22.2,30.33,WSW,245,3.0,19.0,53,0.00,,SKC,0.00,132.00,VWS V14.01,2013-12-26 13:49:00,
2013-12-26 08:51:00,37.9,22.3,30.33,WNW,297,13.0,19.0,53,0.00,,SKC,0.00,139.00,VWS V14.01,2013-12-26 13:51:00,
2013-12-26 08:52:00,38.0,22.4,30.33,SW,234,9.0,19.0,53,0.00,,SKC,0.00,144.00,VWS V14.01,2013-12-26 13:52:00,
2013-12-26 08:53:00,38.2,22.6,30.33,WNW,294,13.0,19.0,53,0.00,,SKC,0.00,146.00,VWS V14.01,2013-12-26 13:53:00,
2013-12-26 08:54:00,38.2,22.6,30.33,WNW,288,11.0,19.0,53,0.00,,SKC,0.00,149.00,VWS V14.01,2013-12-26 13:54:00,
2013-12-26 08:56:00,38.4,22.8,30.33,West,269,10.0,19.0,53,0.00,,SKC,0.00,155.00,VWS V14.01,2013-12-26 13:56:00,
2013-12-26 08:57:00,38.5,22.9,30.33,WNW,294,11.0,19.0,53,0.00,,SKC,0.00,160.00,VWS V14.01,2013-12-26 13:57:00,
2013-12-26 08:58:00,38.6,23.0,30.33,SW,229,6.0,19.0,53,0.00,,SKC,0.00,162.00,VWS V14.01,2013-12-26 13:58:00,
2013-12-26 08:59:00,38.7,23.1,30.33,WSW,239,5.0,19.0,53,0.00,,SKC,0.00,165.00,VWS V14.01,2013-12-26 13:59:00,
2013-12-26 09:01:00,38.8,23.1,30.33,West,262,6.0,19.0,53,0.00,,SKC,0.00,171.00,VWS V14.01,2013-12-26 14:01:00,
2013-12-26 09:03:00,39.0,22.9,30.33,West,277,9.0,16.0,52,0.00,,SKC,0.00,178.00,VWS V14.01,2013-12-26 14:03:00,
2013-12-26 09:05:00,39.1,23.0,30.33,West,275,7.0,16.0,52,0.00,,SKC,0.00,185.00,VWS V14.01,2013-12-26 14:05:00,
2013-12-26 09:06:00,39.2,23.5,30.33,West,275,13.0,16.0,53,0.00,,SKC,0.00,192.00,VWS V14.01,2013-12-26 14:06:00,
2013-12-26 09:07:00,39.3,23.2,30.33,West,276,7.0,16.0,52,0.00,,SKC,0.00,192.00,VWS V14.01,2013-12-26 14:07:00,
2013-12-26 09:08:00,39.3,23.2,30.34,West,268,11.0,16.0,52,0.00,,SKC,0.00,195.00,VWS V14.01,2013-12-26 14:08:00,
2013-12-26 09:09:00,39.4,23.2,30.34,West,271,7.0,16.0,52,0.00,,SKC,0.00,199.00,VWS V14.01,2013-12-26 14:09:00,
2013-12-26 09:10:00,39.4,23.2,30.34,WNW,292,4.0,16.0,52,0.00,,SKC,0.00,202.00,VWS V14.01,2013-12-26 14:10:00,
2013-12-26 09:11:00,39.5,23.4,30.34,WSW,258,5.0,16.0,52,0.00,,SKC,0.00,206.00,VWS V14.01,2013-12-26 14:11:00,
2013-12-26 09:12:00,39.5,23.4,30.34,WSW,253,8.0,16.0,52,0.00,,SKC,0.00,209.00,VWS V14.01,2013-12-26 14:12:00,
2013-12-26 09:13:00,39.5,23.4,30.34,NW,305,11.0,16.0,52,0.00,,SKC,0.00,211.00,VWS V14.01,2013-12-26 14:13:00,
2013-12-26 09:14:00,39.5,23.4,30.34,SW,227,8.0,16.0,52,0.00,,SKC,0.00,213.00,VWS V14.01,2013-12-26 14:14:00,
2013-12-26 09:15:00,39.6,23.4,30.34,West,265,7.0,16.0,52,0.00,,SKC,0.00,218.00,VWS V14.01,2013-12-26 14:15:00,
2013-12-26 09:16:00,39.6,23.4,30.34,WNW,288,8.0,16.0,52,0.00,,SKC,0.00,221.00,VWS V14.01,2013-12-26 14:16:00,
2013-12-26 09:17:00,39.6,23.4,30.34,West,269,7.0,16.0,52,0.00,,SKC,0.00,223.00,VWS V14.01,2013-12-26 14:17:00,
2013-12-26 09:19:00,39.7,23.5,30.34,WSW,254,15.0,16.0,52,0.00,,SKC,0.00,230.00,VWS V14.01,2013-12-26 14:19:00,
2013-12-26 09:21:00,39.7,23.5,30.34,West,267,5.0,16.0,52,0.00,,SKC,0.00,234.00,VWS V14.01,2013-12-26 14:21:00,
2013-12-26 09:22:00,39.7,23.5,30.34,WNW,285,15.0,16.0,52,0.00,,SKC,0.00,237.00,VWS V14.01,2013-12-26 14:22:00,
2013-12-26 09:24:00,39.7,23.5,30.34,WNW,284,7.0,16.0,52,0.00,,SKC,0.00,243.00,VWS V14.01,2013-12-26 14:24:00,
2013-12-26 09:26:00,39.8,23.6,30.34,WSW,250,12.0,16.0,52,0.00,,SKC,0.00,246.00,VWS V14.01,2013-12-26 14:26:00,
2013-12-26 09:27:00,39.8,23.6,30.34,WNW,282,8.0,16.0,52,0.00,,SKC,0.00,251.00,VWS V14.01,2013-12-26 14:27:00,
2013-12-26 09:29:00,39.8,23.6,30.34,West,280,11.0,18.0,52,0.00,,SKC,0.00,255.00,VWS V14.01,2013-12-26 14:29:00,
2013-12-26 09:31:00,39.8,23.6,30.34,West,263,13.0,14.0,52,0.00,,SKC,0.00,264.00,VWS V14.01,2013-12-26 14:31:00,
2013-12-26 09:32:00,39.8,23.6,30.34,WNW,302,12.0,14.0,52,0.00,,SKC,0.00,264.00,VWS V14.01,2013-12-26 14:32:00,
2013-12-26 09:34:00,39.8,23.6,30.34,West,281,4.0,16.0,52,0.00,,SKC,0.00,271.00,VWS V14.01,2013-12-26 14:34:00,
2013-12-26 09:35:00,39.8,23.6,30.34,West,274,4.0,16.0,52,0.00,,SKC,0.00,272.00,VWS V14.01,2013-12-26 14:35:00,
2013-12-26 09:36:00,39.9,24.2,30.34,West,267,7.0,16.0,53,0.00,,SKC,0.00,276.00,VWS V14.01,2013-12-26 14:36:00,
2013-12-26 09:37:00,39.9,23.7,30.34,North,5,6.0,16.0,52,0.00,,SKC,0.00,278.00,VWS V14.01,2013-12-26 14:37:00,
2013-12-26 09:38:00,39.9,23.7,30.34,West,279,9.0,16.0,52,0.00,,SKC,0.00,281.00,VWS V14.01,2013-12-26 14:38:00,
2013-12-26 09:39:00,39.9,23.3,30.34,West,266,8.0,16.0,51,0.00,,SKC,0.00,283.00,VWS V14.01,2013-12-26 14:39:00,
2013-12-26 09:40:00,39.9,23.3,30.34,West,275,6.0,16.0,51,0.00,,SKC,0.00,287.00,VWS V14.01,2013-12-26 14:40:00,
2013-12-26 09:42:00,39.9,23.7,30.34,West,268,8.0,16.0,52,0.00,,SKC,0.00,292.00,VWS V14.01,2013-12-26 14:42:00,
2013-12-26 09:43:00,39.9,23.7,30.34,WNW,301,17.0,17.0,52,0.00,,SKC,0.00,295.00,VWS V14.01,2013-12-26 14:43:00,
2013-12-26 09:45:00,39.8,23.6,30.34,West,260,6.0,17.0,52,0.00,,SKC,0.00,297.00,VWS V14.01,2013-12-26 14:45:00,
2013-12-26 09:46:00,39.9,23.7,30.35,West,267,7.0,17.0,52,0.00,,SKC,0.00,302.00,VWS V14.01,2013-12-26 14:46:00,
2013-12-26 09:47:00,39.9,23.7,30.34,West,269,9.0,17.0,52,0.00,,SKC,0.00,302.00,VWS V14.01,2013-12-26 14:47:00,
2013-12-26 09:48:00,40.0,23.8,30.35,West,261,6.0,17.0,52,0.00,,SKC,0.00,306.00,VWS V14.01,2013-12-26 14:48:00,
2013-12-26 09:50:00,39.9,23.7,30.35,WSW,254,9.0,19.0,52,0.00,,SKC,0.00,311.00,VWS V14.01,2013-12-26 14:50:00,
2013-12-26 09:51:00,39.9,23.7,30.35,West,262,6.0,19.0,52,0.00,,SKC,0.00,311.00,VWS V14.01,2013-12-26 14:51:00,
2013-12-26 09:52:00,39.9,23.7,30.35,West,281,10.0,19.0,52,0.00,,SKC,0.00,316.00,VWS V14.01,2013-12-26 14:52:00,
2013-12-26 09:53:00,39.9,23.7,30.35,West,267,12.0,19.0,52,0.00,,SKC,0.00,320.00,VWS V14.01,2013-12-26 14:53:00,
2013-12-26 09:54:00,39.9,23.7,30.35,West,265,10.0,19.0,52,0.00,,SKC,0.00,320.00,VWS V14.01,2013-12-26 14:54:00,
2013-12-26 09:55:00,39.9,23.7,30.35,West,269,6.0,19.0,52,0.00,,SKC,0.00,322.00,VWS V14.01,2013-12-26 14:55:00,
2013-12-26 09:56:00,39.9,23.7,30.35,West,270,9.0,19.0,52,0.00,,SKC,0.00,323.00,VWS V14.01,2013-12-26 14:56:00,
2013-12-26 09:58:00,40.0,23.8,30.35,WSW,257,10.0,19.0,52,0.00,,SKC,0.00,329.00,VWS V14.01,2013-12-26 14:58:00,
2013-12-26 09:59:00,40.0,23.8,30.35,West,269,8.0,19.0,52,0.00,,SKC,0.00,330.00,VWS V14.01,2013-12-26 14:59:00,
2013-12-26 10:00:00,40.0,23.8,30.35,WSW,252,5.0,19.0,52,0.00,,SKC,0.00,330.00,VWS V14.01,2013-12-26 15:00:00,
2013-12-26 10:01:00,40.0,23.8,30.35,WNW,296,11.0,11.0,52,0.00,,SKC,0.00,334.00,VWS V14.01,2013-12-26 15:01:00,
2013-12-26 10:03:00,40.1,23.9,30.35,West,269,2.0,12.0,52,0.00,,SKC,0.00,339.00,VWS V14.01,2013-12-26 15:03:00,
2013-12-26 10:04:00,40.2,24.0,30.35,WSW,249,4.0,12.0,52,0.00,,SKC,0.00,339.00,VWS V14.01,2013-12-26 15:04:00,
2013-12-26 10:05:00,40.3,24.1,30.35,WSW,240,1.0,12.0,52,0.00,,SKC,0.00,341.00,VWS V14.01,2013-12-26 15:05:00,
2013-12-26 10:07:00,40.4,24.2,30.35,West,260,8.0,12.0,52,0.00,,SKC,0.00,348.00,VWS V14.01,2013-12-26 15:07:00,
2013-12-26 10:09:00,40.3,24.1,30.35,West,277,7.0,13.0,52,0.00,,SKC,0.00,352.00,VWS V14.01,2013-12-26 15:09:00,
2013-12-26 10:10:00,40.3,24.1,30.35,WSW,244,4.0,13.0,52,0.00,,SKC,0.00,353.00,VWS V14.01,2013-12-26 15:10:00,
2013-12-26 10:13:00,40.3,24.1,30.35,West,269,5.0,13.0,52,0.00,,SKC,0.00,359.00,VWS V14.01,2013-12-26 15:13:00,
2013-12-26 10:14:00,40.3,24.1,30.35,WSW,249,3.0,13.0,52,0.00,,SKC,0.00,362.00,VWS V14.01,2013-12-26 15:14:00,
2013-12-26 10:15:00,40.4,24.2,30.35,SW,229,5.0,13.0,52,0.00,,SKC,0.00,364.00,VWS V14.01,2013-12-26 15:15:00,
2013-12-26 10:18:00,40.6,24.4,30.35,WSW,246,5.0,13.0,52,0.00,,SKC,0.00,371.00,VWS V14.01,2013-12-26 15:18:00,
2013-12-26 10:19:00,40.6,24.4,30.35,West,268,4.0,13.0,52,0.00,,SKC,0.00,374.00,VWS V14.01,2013-12-26 15:19:00,
2013-12-26 10:20:00,40.5,23.8,30.35,SW,234,7.0,13.0,51,0.00,,SKC,0.00,374.00,VWS V14.01,2013-12-26 15:20:00,
2013-12-26 10:21:00,40.5,24.3,30.35,WSW,244,7.0,13.0,52,0.00,,SKC,0.00,378.00,VWS V14.01,2013-12-26 15:21:00,
2013-12-26 10:24:00,40.5,24.3,30.35,West,273,3.0,13.0,52,0.00,,SKC,0.00,383.00,VWS V14.01,2013-12-26 15:24:00,
2013-12-26 10:25:00,40.5,24.3,30.35,WSW,254,3.0,13.0,52,0.00,,SKC,0.00,385.00,VWS V14.01,2013-12-26 15:25:00,
2013-12-26 10:26:00,40.6,24.4,30.35,West,278,4.0,13.0,52,0.00,,SKC,0.00,385.00,VWS V14.01,2013-12-26 15:26:00,
2013-12-26 10:30:00,40.9,24.6,30.35,West,261,5.0,13.0,52,0.00,,SKC,0.00,394.00,VWS V14.01,2013-12-26 15:30:00,
2013-12-26 10:31:00,40.9,24.2,30.35,WSW,244,5.0,13.0,51,0.00,,SKC,0.00,397.00,VWS V14.01,2013-12-26 15:31:00,
2013-12-26 10:35:00,41.4,25.1,30.35,SW,232,1.0,12.0,52,0.00,,SKC,0.00,406.00,VWS V14.01,2013-12-26 15:35:00,
2013-12-26 10:36:00,41.5,25.2,30.35,WSW,246,4.0,12.0,52,0.00,,SKC,0.00,406.00,VWS V14.01,2013-12-26 15:36:00,
2013-12-26 10:37:00,41.6,24.8,30.35,SW,232,9.0,16.0,51,0.00,,SKC,0.00,408.00,VWS V14.01,2013-12-26 15:37:00,
2013-12-26 10:40:00,41.4,24.6,30.34,WNW,291,9.0,17.0,51,0.00,,SKC,0.00,415.00,VWS V14.01,2013-12-26 15:40:00,
2013-12-26 10:41:00,41.4,24.6,30.34,SW,225,10.0,17.0,51,0.00,,SKC,0.00,415.00,VWS V14.01,2013-12-26 15:41:00,
2013-12-26 10:42:00,41.3,25.0,30.35,West,262,9.0,17.0,52,0.00,,SKC,0.00,418.00,VWS V14.01,2013-12-26 15:42:00,
2013-12-26 10:46:00,41.5,25.2,30.34,West,263,6.0,17.0,52,0.00,,SKC,0.00,424.00,VWS V14.01,2013-12-26 15:46:00,
2013-12-26 10:47:00,41.8,25.5,30.34,West,267,4.0,17.0,52,0.00,,SKC,0.00,425.00,VWS V14.01,2013-12-26 15:47:00,
2013-12-26 10:51:00,42.4,26.0,30.35,NNW,348,12.0,17.0,52,0.00,,SKC,0.00,432.00,VWS V14.01,2013-12-26 15:51:00,
2013-12-26 10:52:00,42.4,25.6,30.34,NNE,17,7.0,17.0,51,0.00,,SKC,0.00,432.00,VWS V14.01,2013-12-26 15:52:00,
2013-12-26 10:53:00,42.4,25.6,30.34,WSW,244,4.0,17.0,51,0.00,,SKC,0.00,434.00,VWS V14.01,2013-12-26 15:53:00,
2013-12-26 10:56:00,42.4,25.6,30.34,West,261,9.0,17.0,51,0.00,,SKC,0.00,445.00,VWS V14.01,2013-12-26 15:56:00,
2013-12-26 10:57:00,42.4,25.6,30.34,SW,236,6.0,17.0,51,0.00,,SKC,0.00,445.00,VWS V14.01,2013-12-26 15:57:00,
2013-12-26 10:58:00,42.4,25.6,30.34,WNW,296,10.0,17.0,51,0.00,,SKC,0.00,450.00,VWS V14.01,2013-12-26 15:58:00,
2013-12-26 11:01:00,42.4,25.6,30.34,West,262,19.0,19.0,51,0.00,,SKC,0.00,448.00,VWS V14.01,2013-12-26 16:01:00,
2013-12-26 11:02:00,42.4,25.6,30.34,WSW,248,2.0,20.0,51,0.00,,SKC,0.00,448.00,VWS V14.01,2013-12-26 16:02:00,
2013-12-26 11:03:00,42.5,25.7,30.34,SW,236,9.0,20.0,51,0.00,,SKC,0.00,452.00,VWS V14.01,2013-12-26 16:03:00,
2013-12-26 11:04:00,42.5,25.7,30.34,WSW,238,9.0,20.0,51,0.00,,SKC,0.00,452.00,VWS V14.01,2013-12-26 16:04:00,
2013-12-26 11:06:00,42.6,25.8,30.34,West,278,6.0,20.0,51,0.00,,SKC,0.00,457.00,VWS V14.01,2013-12-26 16:06:00,
2013-12-26 11:08:00,42.6,25.8,30.33,WSW,258,5.0,20.0,51,0.00,,SKC,0.00,459.00,VWS V14.01,2013-12-26 16:08:00,
2013-12-26 11:09:00,42.7,25.9,30.33,WNW,303,4.0,20.0,51,0.00,,SKC,0.00,459.00,VWS V14.01,2013-12-26 16:09:00,
2013-12-26 11:11:00,42.7,25.9,30.34,West,259,4.0,20.0,51,0.00,,SKC,0.00,462.00,VWS V14.01,2013-12-26 16:11:00,
2013-12-26 11:12:00,42.8,25.9,30.33,NNW,346,3.0,20.0,51,0.00,,SKC,0.00,464.00,VWS V14.01,2013-12-26 16:12:00,
2013-12-26 11:13:00,43.0,26.1,30.33,SW,215,9.0,20.0,51,0.00,,SKC,0.00,466.00,VWS V14.01,2013-12-26 16:13:00,
2013-12-26 11:14:00,42.9,26.0,30.34,SW,229,8.0,20.0,51,0.00,,SKC,0.00,468.00,VWS V14.01,2013-12-26 16:14:00,
2013-12-26 11:15:00,42.9,26.0,30.34,WNW,302,5.0,20.0,51,0.00,,SKC,0.00,469.00,VWS V14.01,2013-12-26 16:15:00,
2013-12-26 11:17:00,43.0,26.1,30.33,WSW,246,5.0,20.0,51,0.00,,SKC,0.00,469.00,VWS V14.01,2013-12-26 16:17:00,
2013-12-26 11:18:00,43.0,25.6,30.33,WSW,249,4.0,20.0,50,0.00,,SKC,0.00,471.00,VWS V14.01,2013-12-26 16:18:00,
2013-12-26 11:19:00,43.1,26.2,30.33,WSW,239,3.0,20.0,51,0.00,,SKC,0.00,471.00,VWS V14.01,2013-12-26 16:19:00,
2013-12-26 11:21:00,43.2,26.3,30.33,West,264,6.0,20.0,51,0.00,,SKC,0.00,476.00,VWS V14.01,2013-12-26 16:21:00,
2013-12-26 11:22:00,43.3,25.9,30.33,NW,325,6.0,20.0,50,0.00,,SKC,0.00,478.00,VWS V14.01,2013-12-26 16:22:00,
2013-12-26 11:23:00,43.4,26.0,30.33,West,279,6.0,20.0,50,0.00,,SKC,0.00,478.00,VWS V14.01,2013-12-26 16:23:00,
2013-12-26 11:24:00,43.5,26.1,30.33,NNW,330,6.0,20.0,50,0.00,,SKC,0.00,478.00,VWS V14.01,2013-12-26 16:24:00,
2013-12-26 11:26:00,43.3,25.9,30.33,WSW,240,7.0,20.0,50,0.00,,SKC,0.00,482.00,VWS V14.01,2013-12-26 16:26:00,
2013-12-26 11:27:00,43.2,25.8,30.33,WSW,257,9.0,20.0,50,0.00,,SKC,0.00,485.00,VWS V14.01,2013-12-26 16:27:00,
2013-12-26 11:28:00,43.1,25.7,30.33,WNW,297,12.0,20.0,50,0.00,,SKC,0.00,485.00,VWS V14.01,2013-12-26 16:28:00,
2013-12-26 11:29:00,43.1,25.7,30.33,NW,305,5.0,20.0,50,0.00,,SKC,0.00,485.00,VWS V14.01,2013-12-26 16:29:00,
2013-12-26 11:31:00,43.1,26.2,30.33,WSW,250,4.0,4.0,51,0.00,,SKC,0.00,489.00,VWS V14.01,2013-12-26 16:31:00,
2013-12-26 11:32:00,43.4,26.5,30.32,SW,231,5.0,6.0,51,0.00,,SKC,0.00,489.00,VWS V14.01,2013-12-26 16:32:00,
2013-12-26 11:33:00,43.8,26.9,30.33,WNW,284,5.0,8.0,51,0.00,,SKC,0.00,490.00,VWS V14.01,2013-12-26 16:33:00,
2013-12-26 11:34:00,43.8,26.9,30.33,SW,228,7.0,8.0,51,0.00,,SKC,0.00,490.00,VWS V14.01,2013-12-26 16:34:00,
2013-12-26 11:35:00,43.8,26.4,30.32,West,267,9.0,9.0,50,0.00,,SKC,0.00,492.00,VWS V14.01,2013-12-26 16:35:00,
2013-12-26 11:36:00,43.8,26.4,30.32,SW,234,7.0,9.0,50,0.00,,SKC,0.00,494.00,VWS V14.01,2013-12-26 16:36:00,
2013-12-26 11:37:00,43.8,26.4,30.32,WSW,248,3.0,9.0,50,0.00,,SKC,0.00,494.00,VWS V14.01,2013-12-26 16:37:00,
2013-12-26 11:39:00,43.9,26.5,30.32,WSW,257,4.0,9.0,50,0.00,,SKC,0.00,496.00,VWS V14.01,2013-12-26 16:39:00,
2013-12-26 11:40:00,44.1,26.7,30.32,SW,215,8.0,9.0,50,0.00,,SKC,0.00,496.00,VWS V14.01,2013-12-26 16:40:00,
2013-12-26 11:42:00,44.2,26.8,30.32,WSW,242,5.0,12.0,50,0.00,,SKC,0.00,497.00,VWS V14.01,2013-12-26 16:42:00,
2013-12-26 11:43:00,44.3,26.9,30.32,West,270,9.0,12.0,50,0.00,,SKC,0.00,497.00,VWS V14.01,2013-12-26 16:43:00,
2013-12-26 11:44:00,44.3,26.4,30.32,West,261,3.0,12.0,49,0.00,,SKC,0.00,499.00,VWS V14.01,2013-12-26 16:44:00,
2013-12-26 11:45:00,44.4,26.5,30.32,West,265,5.0,12.0,49,0.00,,SKC,0.00,501.00,VWS V14.01,2013-12-26 16:45:00,
2013-12-26 11:48:00,44.3,26.4,30.32,West,267,10.0,14.0,49,0.00,,SKC,0.00,501.00,VWS V14.01,2013-12-26 16:48:00,
2013-12-26 11:49:00,44.2,26.3,30.32,SW,236,11.0,14.0,49,0.00,,SKC,0.00,503.00,VWS V14.01,2013-12-26 16:49:00,
2013-12-26 11:51:00,44.0,26.1,30.32,WNW,284,5.0,14.0,49,0.00,,SKC,0.00,504.00,VWS V14.01,2013-12-26 16:51:00,
2013-12-26 11:53:00,44.2,26.3,30.32,SW,229,4.0,14.0,49,0.00,,SKC,0.00,504.00,VWS V14.01,2013-12-26 16:53:00,
2013-12-26 11:54:00,44.2,26.8,30.32,SSW,213,5.0,14.0,50,0.00,,SKC,0.00,506.00,VWS V14.01,2013-12-26 16:54:00,
2013-12-26 11:55:00,44.7,26.7,30.32,WNW,299,4.0,14.0,49,0.00,,SKC,0.00,504.00,VWS V14.01,2013-12-26 16:55:00,
2013-12-26 11:56:00,45.1,27.1,30.32,West,268,9.0,14.0,49,0.00,,SKC,0.00,510.00,VWS V14.01,2013-12-26 16:56:00,
2013-12-26 11:58:00,45.0,27.0,30.32,NNW,335,6.0,14.0,49,0.00,,SKC,0.00,508.00,VWS V14.01,2013-12-26 16:58:00,
2013-12-26 11:59:00,45.1,26.6,30.32,NW,317,2.0,14.0,48,0.00,,SKC,0.00,510.00,VWS V14.01,2013-12-26 16:59:00,
2013-12-26 12:00:00,45.1,27.1,30.32,SSW,212,6.0,14.0,49,0.00,,SKC,0.00,512.00,VWS V14.01,2013-12-26 17:00:00,
2013-12-26 12:02:00,45.1,26.6,30.31,West,277,6.0,7.0,48,0.00,,SKC,0.00,512.00,VWS V14.01,2013-12-26 17:02:00,
2013-12-26 12:03:00,45.1,26.6,30.31,SW,235,3.0,7.0,48,0.00,,SKC,0.00,512.00,VWS V14.01,2013-12-26 17:03:00,
2013-12-26 12:04:00,45.1,26.6,30.31,WSW,258,4.0,9.0,48,0.00,,SKC,0.00,513.00,VWS V14.01,2013-12-26 17:04:00,
2013-12-26 12:05:00,45.2,26.7,30.31,SW,236,5.0,9.0,48,0.00,,SKC,0.00,513.00,VWS V14.01,2013-12-26 17:05:00,
2013-12-26 12:07:00,45.4,26.9,30.31,SW,219,7.0,9.0,48,0.00,,SKC,0.00,515.00,VWS V14.01,2013-12-26 17:07:00,
2013-12-26 12:08:00,45.5,26.5,30.31,NNW,342,4.0,13.0,47,0.00,,SKC,0.00,515.00,VWS V14.01,2013-12-26 17:08:00,
2013-12-26 12:10:00,45.5,26.5,30.31,West,275,7.0,13.0,47,0.00,,SKC,0.00,519.00,VWS V14.01,2013-12-26 17:10:00,
2013-12-26 12:12:00,45.6,26.5,30.31,WNW,298,9.0,13.0,47,0.00,,SKC,0.00,519.00,VWS V14.01,2013-12-26 17:12:00,
2013-12-26 12:13:00,45.6,26.0,30.31,SW,227,9.0,19.0,46,0.00,,SKC,0.00,515.00,VWS V14.01,2013-12-26 17:13:00,
2013-12-26 12:14:00,45.8,26.7,30.31,West,277,8.0,19.0,47,0.00,,SKC,0.00,520.00,VWS V14.01,2013-12-26 17:14:00,
2013-12-26 12:15:00,45.8,26.7,30.31,West,260,5.0,19.0,47,0.00,,SKC,0.00,520.00,VWS V14.01,2013-12-26 17:15:00,
2013-12-26 12:16:00,45.8,26.7,30.31,WNW,283,17.0,19.0,47,0.00,,SKC,0.00,517.00,VWS V14.01,2013-12-26 17:16:00,
2013-12-26 12:17:00,45.6,26.0,30.31,West,264,17.0,19.0,46,0.00,,SKC,0.00,517.00,VWS V14.01,2013-12-26 17:17:00,
2013-12-26 12:19:00,45.4,25.9,30.31,NNW,330,5.0,19.0,46,0.00,,SKC,0.00,522.00,VWS V14.01,2013-12-26 17:19:00,
2013-12-26 12:20:00,45.3,26.3,30.31,WNW,286,9.0,19.0,47,0.00,,SKC,0.00,520.00,VWS V14.01,2013-12-26 17:20:00,
2013-12-26 12:21:00,45.2,25.7,30.31,West,270,2.0,19.0,46,0.00,,SKC,0.00,519.00,VWS V14.01,2013-12-26 17:21:00,
2013-12-26 12:22:00,45.3,26.3,30.31,WNW,294,12.0,19.0,47,0.00,,SKC,0.00,519.00,VWS V14.01,2013-12-26 17:22:00,
2013-12-26 12:24:00,45.4,25.9,30.31,SW,233,7.0,19.0,46,0.00,,SKC,0.00,519.00,VWS V14.01,2013-12-26 17:24:00,
2013-12-26 12:25:00,45.5,26.5,30.31,SW,236,8.0,19.0,47,0.00,,SKC,0.00,522.00,VWS V14.01,2013-12-26 17:25:00,
2013-12-26 12:26:00,45.6,26.5,30.31,West,278,5.0,19.0,47,0.00,,SKC,0.00,520.00,VWS V14.01,2013-12-26 17:26:00,
2013-12-26 12:28:00,45.8,25.7,30.30,WNW,284,8.0,19.0,45,0.00,,SKC,0.00,520.00,VWS V14.01,2013-12-26 17:28:00,
2013-12-26 12:29:00,45.7,26.1,30.30,West,280,7.0,19.0,46,0.00,,SKC,0.00,520.00,VWS V14.01,2013-12-26 17:29:00,
2013-12-26 12:30:00,45.6,26.0,30.30,WSW,254,6.0,19.0,46,0.00,,SKC,0.00,522.00,VWS V14.01,2013-12-26 17:30:00,
2013-12-26 12:31:00,45.6,26.0,30.30,WSW,242,6.0,19.0,46,0.00,,SKC,0.00,520.00,VWS V14.01,2013-12-26 17:31:00,
2013-12-26 12:32:00,45.6,26.0,30.30,West,269,12.0,12.0,46,0.00,,SKC,0.00,522.00,VWS V14.01,2013-12-26 17:32:00,
2013-12-26 12:33:00,45.6,26.0,30.30,WSW,251,6.0,12.0,46,0.00,,SKC,0.00,522.00,VWS V14.01,2013-12-26 17:33:00,
2013-12-26 12:34:00,45.6,26.0,30.31,West,264,12.0,15.0,46,0.00,,SKC,0.00,522.00,VWS V14.01,2013-12-26 17:34:00,
2013-12-26 12:35:00,45.5,25.4,30.30,NW,314,13.0,19.0,45,0.00,,SKC,0.00,520.00,VWS V14.01,2013-12-26 17:35:00,
2013-12-26 12:36:00,45.4,25.3,30.30,WSW,257,8.0,19.0,45,0.00,,SKC,0.00,520.00,VWS V14.01,2013-12-26 17:36:00,
2013-12-26 12:37:00,45.4,25.9,30.31,WSW,257,5.0,19.0,46,0.00,,SKC,0.00,522.00,VWS V14.01,2013-12-26 17:37:00,
2013-12-26 12:38:00,45.5,25.9,30.30,West,265,11.0,19.0,46,0.00,,SKC,0.00,520.00,VWS V14.01,2013-12-26 17:38:00,
2013-12-26 12:39:00,45.5,25.9,30.30,WNW,284,6.0,19.0,46,0.00,,SKC,0.00,520.00,VWS V14.01,2013-12-26 17:39:00,
2013-12-26 12:40:00,45.4,25.9,30.30,West,274,8.0,19.0,46,0.00,,SKC,0.00,520.00,VWS V14.01,2013-12-26 17:40:00,
2013-12-26 12:41:00,45.4,25.9,30.30,West,280,8.0,19.0,46,0.00,,SKC,0.00,520.00,VWS V14.01,2013-12-26 17:41:00,
2013-12-26 12:42:00,45.4,25.9,30.30,NW,307,9.0,19.0,46,0.00,,SKC,0.00,519.00,VWS V14.01,2013-12-26 17:42:00,
2013-12-26 12:43:00,45.4,26.4,30.30,SW,235,6.0,19.0,47,0.00,,SKC,0.00,519.00,VWS V14.01,2013-12-26 17:43:00,
2013-12-26 12:45:00,45.6,26.5,30.30,WSW,252,2.0,19.0,47,0.00,,SKC,0.00,517.00,VWS V14.01,2013-12-26 17:45:00,
2013-12-26 12:46:00,45.8,26.2,30.30,West,273,11.0,19.0,46,0.00,,SKC,0.00,519.00,VWS V14.01,2013-12-26 17:46:00,
2013-12-26 12:47:00,45.6,26.0,30.30,West,260,8.0,19.0,46,0.00,,SKC,0.00,519.00,VWS V14.01,2013-12-26 17:47:00,
2013-12-26 12:48:00,45.6,26.0,30.30,NNW,336,9.0,19.0,46,0.00,,SKC,0.00,517.00,VWS V14.01,2013-12-26 17:48:00,
2013-12-26 12:50:00,45.6,26.5,30.30,NW,323,4.0,19.0,47,0.00,,SKC,0.00,520.00,VWS V14.01,2013-12-26 17:50:00,
2013-12-26 12:51:00,45.6,26.5,30.30,NNW,331,0.0,19.0,47,0.00,,SKC,0.00,517.00,VWS V14.01,2013-12-26 17:51:00,
2013-12-26 12:52:00,45.8,26.7,30.30,WSW,248,5.0,19.0,47,0.00,,SKC,0.00,517.00,VWS V14.01,2013-12-26 17:52:00,
2013-12-26 12:53:00,46.0,26.4,30.30,West,275,7.0,19.0,46,0.00,,SKC,0.00,517.00,VWS V14.01,2013-12-26 17:53:00,
2013-12-26 12:55:00,46.0,26.4,30.30,NW,304,7.0,19.0,46,0.00,,SKC,0.00,515.00,VWS V14.01,2013-12-26 17:55:00,
2013-12-26 12:56:00,46.0,26.4,30.30,West,263,7.0,19.0,46,0.00,,SKC,0.00,515.00,VWS V14.01,2013-12-26 17:56:00,
2013-12-26 12:57:00,46.0,26.4,30.30,West,275,7.0,19.0,46,0.00,,SKC,0.00,517.00,VWS V14.01,2013-12-26 17:57:00,
2013-12-26 12:59:00,46.0,26.4,30.30,WSW,242,6.0,19.0,46,0.00,,SKC,0.00,515.00,VWS V14.01,2013-12-26 17:59:00,
2013-12-26 13:00:00,46.0,26.4,30.29,West,265,13.0,19.0,46,0.00,,SKC,0.00,513.00,VWS V14.01,2013-12-26 18:00:00,
2013-12-26 13:01:00,46.0,25.9,30.29,West,270,12.0,19.0,45,0.00,,SKC,0.00,513.00,VWS V14.01,2013-12-26 18:01:00,
2013-12-26 13:03:00,45.9,26.8,30.29,West,277,5.0,12.0,47,0.00,,SKC,0.00,515.00,VWS V14.01,2013-12-26 18:03:00,
2013-12-26 13:04:00,46.0,26.4,30.30,West,259,11.0,14.0,46,0.00,,SKC,0.00,515.00,VWS V14.01,2013-12-26 18:04:00,
2013-12-26 13:05:00,45.9,25.8,30.29,West,265,6.0,14.0,45,0.00,,SKC,0.00,513.00,VWS V14.01,2013-12-26 18:05:00,
2013-12-26 13:06:00,46.0,26.4,30.29,West,262,10.0,14.0,46,0.00,,SKC,0.00,513.00,VWS V14.01,2013-12-26 18:06:00,
2013-12-26 13:08:00,46.0,25.9,30.29,WSW,242,5.0,14.0,45,0.00,,SKC,0.00,512.00,VWS V14.01,2013-12-26 18:08:00,
2013-12-26 13:09:00,46.2,26.6,30.29,West,273,5.0,14.0,46,0.00,,SKC,0.00,513.00,VWS V14.01,2013-12-26 18:09:00,
2013-12-26 13:11:00,46.3,26.1,30.29,WSW,254,8.0,14.0,45,0.00,,SKC,0.00,512.00,VWS V14.01,2013-12-26 18:11:00,
2013-12-26 13:13:00,46.3,26.7,30.29,WSW,257,6.0,14.0,46,0.00,,SKC,0.00,512.00,VWS V14.01,2013-12-26 18:13:00,
2013-12-26 13:15:00,46.3,26.1,30.29,West,265,9.0,14.0,45,0.00,,SKC,0.00,512.00,VWS V14.01,2013-12-26 18:15:00,
2013-12-26 13:16:00,46.3,26.1,30.29,West,275,8.0,14.0,45,0.00,,SKC,0.00,508.00,VWS V14.01,2013-12-26 18:16:00,
2013-12-26 13:18:00,46.3,26.1,30.28,WSW,248,4.0,14.0,45,0.00,,SKC,0.00,515.00,VWS V14.01,2013-12-26 18:18:00,
2013-12-26 13:20:00,46.5,25.8,30.28,West,271,4.0,14.0,44,0.00,,SKC,0.00,506.00,VWS V14.01,2013-12-26 18:20:00,
2013-12-26 13:21:00,46.7,26.5,30.28,West,263,9.0,14.0,45,0.00,,SKC,0.00,504.00,VWS V14.01,2013-12-26 18:21:00,
2013-12-26 13:23:00,46.8,25.5,30.28,West,271,4.0,16.0,43,0.00,,SKC,0.00,503.00,VWS V14.01,2013-12-26 18:23:00,
2013-12-26 13:24:00,46.9,26.1,30.28,West,270,10.0,16.0,44,0.00,,SKC,0.00,506.00,VWS V14.01,2013-12-26 18:24:00,
2013-12-26 13:25:00,46.9,25.6,30.28,WSW,255,5.0,16.0,43,0.00,,SKC,0.00,503.00,VWS V14.01,2013-12-26 18:25:00,
2013-12-26 13:26:00,46.8,25.5,30.28,West,263,4.0,16.0,43,0.00,,SKC,0.00,503.00,VWS V14.01,2013-12-26 18:26:00,
2013-12-26 13:27:00,46.9,25.6,30.28,WSW,245,5.0,16.0,43,0.00,,SKC,0.00,503.00,VWS V14.01,2013-12-26 18:27:00,
2013-12-26 13:28:00,47.0,26.2,30.28,West,262,12.0,16.0,44,0.00,,SKC,0.00,499.00,VWS V14.01,2013-12-26 18:28:00,
2013-12-26 13:29:00,47.0,25.7,30.28,West,271,9.0,16.0,43,0.00,,SKC,0.00,496.00,VWS V14.01,2013-12-26 18:29:00,
2013-12-26 13:30:00,47.2,25.9,30.28,West,259,3.0,16.0,43,0.00,,SKC,0.00,497.00,VWS V14.01,2013-12-26 18:30:00,
2013-12-26 13:31:00,47.2,25.9,30.28,West,280,4.0,16.0,43,0.00,,SKC,0.00,497.00,VWS V14.01,2013-12-26 18:31:00,
2013-12-26 13:32:00,47.3,25.4,30.28,WNW,290,10.0,14.0,42,0.00,,SKC,0.00,497.00,VWS V14.01,2013-12-26 18:32:00,
2013-12-26 13:33:00,47.3,25.4,30.28,WSW,257,6.0,14.0,42,0.00,,SKC,0.00,494.00,VWS V14.01,2013-12-26 18:33:00,
2013-12-26 13:34:00,47.3,25.4,30.28,West,268,6.0,14.0,42,0.00,,SKC,0.00,494.00,VWS V14.01,2013-12-26 18:34:00,
2013-12-26 13:35:00,47.2,24.7,30.28,WSW,250,9.0,14.0,41,0.00,,SKC,0.00,492.00,VWS V14.01,2013-12-26 18:35:00,
2013-12-26 13:36:00,47.2,24.7,30.28,WSW,242,6.0,14.0,41,0.00,,SKC,0.00,492.00,VWS V14.01,2013-12-26 18:36:00,
2013-12-26 13:37:00,47.2,24.7,30.28,West,263,7.0,14.0,41,0.00,,SKC,0.00,492.00,VWS V14.01,2013-12-26 18:37:00,
2013-12-26 13:38:00,47.2,24.1,30.29,WNW,296,11.0,15.0,40,0.00,,SKC,0.00,487.00,VWS V14.01,2013-12-26 18:38:00,
2013-12-26 13:39:00,47.2,23.5,30.29,WNW,288,5.0,15.0,39,0.00,,SKC,0.00,489.00,VWS V14.01,2013-12-26 18:39:00,
2013-12-26 13:41:00,47.2,23.5,30.29,West,275,6.0,15.0,39,0.00,,SKC,0.00,489.00,VWS V14.01,2013-12-26 18:41:00,
2013-12-26 13:42:00,47.1,22.8,30.29,WNW,288,15.0,20.0,38,0.00,,SKC,0.00,489.00,VWS V14.01,2013-12-26 18:42:00,
2013-12-26 13:43:00,46.9,22.0,30.29,WSW,255,11.0,20.0,37,0.00,,SKC,0.00,489.00,VWS V14.01,2013-12-26 18:43:00,
2013-12-26 13:44:00,46.8,21.9,30.29,West,267,9.0,20.0,37,0.00,,SKC,0.00,489.00,VWS V14.01,2013-12-26 18:44:00,
2013-12-26 13:46:00,46.6,22.4,30.29,West,265,6.0,20.0,38,0.00,,SKC,0.00,485.00,VWS V14.01,2013-12-26 18:46:00,
2013-12-26 13:47:00,46.7,22.5,30.28,NNW,330,19.0,28.0,38,0.00,,SKC,0.00,489.00,VWS V14.01,2013-12-26 18:47:00,
2013-12-26 13:49:00,47.0,23.3,30.29,WNW,296,8.0,28.0,39,0.00,,SKC,0.00,483.00,VWS V14.01,2013-12-26 18:49:00,
2013-12-26 13:50:00,47.0,23.3,30.29,WNW,292,12.0,28.0,39,0.00,,SKC,0.00,483.00,VWS V14.01,2013-12-26 18:50:00,
2013-12-26 13:51:00,47.0,22.7,30.29,West,269,12.0,28.0,38,0.00,,SKC,0.00,482.00,VWS V14.01,2013-12-26 18:51:00,
2013-12-26 13:53:00,47.0,22.7,30.29,WSW,244,11.0,28.0,38,0.00,,SKC,0.00,478.00,VWS V14.01,2013-12-26 18:53:00,
2013-12-26 13:54:00,47.0,23.3,30.28,WNW,286,14.0,28.0,39,0.00,,SKC,0.00,478.00,VWS V14.01,2013-12-26 18:54:00,
2013-12-26 13:55:00,47.0,22.7,30.28,SW,226,12.0,28.0,38,0.00,,SKC,0.00,478.00,VWS V14.01,2013-12-26 18:55:00,
2013-12-26 13:56:00,46.9,22.6,30.29,North,9,2.0,28.0,38,0.00,,SKC,0.00,476.00,VWS V14.01,2013-12-26 18:56:00,
2013-12-26 13:57:00,47.0,23.3,30.29,NW,304,2.0,28.0,39,0.00,,SKC,0.00,476.00,VWS V14.01,2013-12-26 18:57:00,
2013-12-26 13:58:00,47.1,22.8,30.29,WNW,283,12.0,28.0,38,0.00,,SKC,0.00,473.00,VWS V14.01,2013-12-26 18:58:00,
2013-12-26 14:00:00,47.2,22.9,30.29,West,275,10.0,28.0,38,0.00,,SKC,0.00,471.00,VWS V14.01,2013-12-26 19:00:00,
2013-12-26 14:01:00,47.2,22.9,30.29,West,269,13.0,13.0,38,0.00,,SKC,0.00,469.00,VWS V14.01,2013-12-26 19:01:00,
2013-12-26 14:02:00,47.1,22.2,30.29,WNW,300,6.0,13.0,37,0.00,,SKC,0.00,469.00,VWS V14.01,2013-12-26 19:02:00,
2013-12-26 14:03:00,47.0,22.7,30.28,NW,321,6.0,13.0,38,0.00,,SKC,0.00,466.00,VWS V14.01,2013-12-26 19:03:00,
2013-12-26 14:05:00,47.2,22.9,30.29,NW,312,8.0,13.0,38,0.00,,SKC,0.00,464.00,VWS V14.01,2013-12-26 19:05:00,
2013-12-26 14:07:00,47.1,22.8,30.28,NNW,337,13.0,16.0,38,0.00,,SKC,0.00,464.00,VWS V14.01,2013-12-26 19:07:00,
2013-12-26 14:08:00,47.0,22.7,30.28,WNW,295,7.0,17.0,38,0.00,,SKC,0.00,461.00,VWS V14.01,2013-12-26 19:08:00,
2013-12-26 14:10:00,46.8,23.2,30.29,WNW,294,5.0,17.0,39,0.00,,SKC,0.00,457.00,VWS V14.01,2013-12-26 19:10:00,
2013-12-26 14:11:00,46.8,23.2,30.29,WNW,296,2.0,17.0,39,0.00,,SKC,0.00,457.00,VWS V14.01,2013-12-26 19:11:00,
2013-12-26 14:12:00,46.7,23.1,30.29,NNW,336,4.0,17.0,39,0.00,,SKC,0.00,454.00,VWS V14.01,2013-12-26 19:12:00,
2013-12-26 14:13:00,46.7,23.7,30.29,NNW,331,1.0,17.0,40,0.00,,SKC,0.00,452.00,VWS V14.01,2013-12-26 19:13:00,
2013-12-26 14:16:00,47.0,24.0,30.29,WNW,292,1.0,17.0,40,0.00,,SKC,0.00,445.00,VWS V14.01,2013-12-26 19:16:00,
2013-12-26 14:17:00,47.2,24.1,30.29,NNW,333,6.0,17.0,40,0.00,,SKC,0.00,443.00,VWS V14.01,2013-12-26 19:17:00,
2013-12-26 14:18:00,47.3,24.2,30.29,West,261,5.0,17.0,40,0.00,,SKC,0.00,441.00,VWS V14.01,2013-12-26 19:18:00,
2013-12-26 14:21:00,47.3,24.2,30.29,NE,34,0.0,17.0,40,0.00,,SKC,0.00,436.00,VWS V14.01,2013-12-26 19:21:00,
2013-12-26 14:22:00,47.3,24.2,30.29,NW,326,7.0,17.0,40,0.00,,SKC,0.00,434.00,VWS V14.01,2013-12-26 19:22:00,
2013-12-26 14:23:00,47.3,24.2,30.29,WNW,302,7.0,17.0,40,0.00,,SKC,0.00,434.00,VWS V14.01,2013-12-26 19:23:00,
2013-12-26 14:27:00,47.0,24.0,30.29,WNW,288,4.0,17.0,40,0.00,,SKC,0.00,429.00,VWS V14.01,2013-12-26 19:27:00,
2013-12-26 14:28:00,47.2,25.3,30.29,WSW,246,3.0,17.0,42,0.00,,SKC,0.00,424.00,VWS V14.01,2013-12-26 19:28:00,
2013-12-26 14:32:00,47.2,24.1,30.29,NNW,332,7.0,7.0,40,0.00,,SKC,0.00,417.00,VWS V14.01,2013-12-26 19:32:00,
2013-12-26 14:33:00,47.2,24.1,30.29,WSW,250,5.0,7.0,40,0.00,,SKC,0.00,415.00,VWS V14.01,2013-12-26 19:33:00,
2013-12-26 14:37:00,46.8,23.2,30.29,WSW,251,4.0,13.0,39,0.00,,SKC,0.00,410.00,VWS V14.01,2013-12-26 19:37:00,
2013-12-26 14:38:00,46.8,24.4,30.29,WSW,252,3.0,13.0,41,0.00,,SKC,0.00,408.00,VWS V14.01,2013-12-26 19:38:00,
2013-12-26 14:42:00,47.0,24.0,30.29,West,277,4.0,13.0,40,0.00,,SKC,0.00,399.00,VWS V14.01,2013-12-26 19:42:00,
2013-12-26 14:43:00,47.1,24.0,30.29,WNW,302,5.0,13.0,40,0.00,,SKC,0.00,397.00,VWS V14.01,2013-12-26 19:43:00,
2013-12-26 14:44:00,47.1,23.4,30.29,West,271,6.0,13.0,39,0.00,,SKC,0.00,397.00,VWS V14.01,2013-12-26 19:44:00,
2013-12-26 14:47:00,47.2,24.1,30.29,WSW,250,7.0,13.0,40,0.00,,SKC,0.00,388.00,VWS V14.01,2013-12-26 19:47:00,
2013-12-26 14:48:00,47.1,23.4,30.29,West,263,9.0,13.0,39,0.00,,SKC,0.00,387.00,VWS V14.01,2013-12-26 19:48:00,
2013-12-26 14:49:00,47.0,24.0,30.29,SW,226,8.0,13.0,40,0.00,,SKC,0.00,387.00,VWS V14.01,2013-12-26 19:49:00,
2013-12-26 14:52:00,46.8,23.8,30.29,WSW,255,7.0,13.0,40,0.00,,SKC,0.00,376.00,VWS V14.01,2013-12-26 19:52:00,
2013-12-26 14:54:00,46.8,23.8,30.29,WNW,298,7.0,13.0,40,0.00,,SKC,0.00,374.00,VWS V14.01,2013-12-26 19:54:00,
2013-12-26 14:57:00,47.0,24.5,30.29,NW,306,4.0,15.0,41,0.00,,SKC,0.00,366.00,VWS V14.01,2013-12-26 19:57:00,
2013-12-26 14:59:00,47.0,24.5,30.29,WSW,253,7.0,15.0,41,0.00,,SKC,0.00,364.00,VWS V14.01,2013-12-26 19:59:00,
2013-12-26 15:00:00,47.0,24.0,30.29,West,267,7.0,15.0,40,0.00,,SKC,0.00,362.00,VWS V14.01,2013-12-26 20:00:00,
2013-12-26 15:03:00,47.0,24.0,30.29,WSW,244,5.0,9.0,40,0.00,,SKC,0.00,355.00,VWS V14.01,2013-12-26 20:03:00,
2013-12-26 15:04:00,47.1,24.6,30.29,WSW,258,4.0,9.0,41,0.00,,SKC,0.00,353.00,VWS V14.01,2013-12-26 20:04:00,
2013-12-26 15:05:00,47.1,24.0,30.29,West,273,9.0,9.0,40,0.00,,SKC,0.00,350.00,VWS V14.01,2013-12-26 20:05:00,
2013-12-26 15:08:00,46.9,23.9,30.30,WSW,248,9.0,13.0,40,0.00,,SKC,0.00,343.00,VWS V14.01,2013-12-26 20:08:00,
2013-12-26 15:09:00,46.9,23.9,30.30,West,267,3.0,13.0,40,0.00,,SKC,0.00,339.00,VWS V14.01,2013-12-26 20:09:00,
2013-12-26 15:10:00,46.8,23.8,30.30,WSW,252,6.0,13.0,40,0.00,,SKC,0.00,339.00,VWS V14.01,2013-12-26 20:10:00,
2013-12-26 15:13:00,46.6,23.6,30.30,West,277,6.0,13.0,40,0.00,,SKC,0.00,330.00,VWS V14.01,2013-12-26 20:13:00,
2013-12-26 15:14:00,46.6,23.6,30.30,WNW,284,7.0,13.0,40,0.00,,SKC,0.00,329.00,VWS V14.01,2013-12-26 20:14:00,
2013-12-26 15:15:00,46.6,23.6,30.30,West,274,8.0,13.0,40,0.00,,SKC,0.00,327.00,VWS V14.01,2013-12-26 20:15:00,
2013-12-26 15:16:00,46.6,23.6,30.30,West,279,6.0,13.0,40,0.00,,SKC,0.00,323.00,VWS V14.01,2013-12-26 20:16:00,
2013-12-26 15:19:00,46.5,22.9,30.29,West,273,5.0,13.0,39,0.00,,SKC,0.00,318.00,VWS V14.01,2013-12-26 20:19:00,
2013-12-26 15:20:00,46.5,23.5,30.30,West,267,4.0,13.0,40,0.00,,SKC,0.00,315.00,VWS V14.01,2013-12-26 20:20:00,
2013-12-26 15:21:00,46.5,23.5,30.30,WSW,257,6.0,13.0,40,0.00,,SKC,0.00,313.00,VWS V14.01,2013-12-26 20:21:00,
2013-12-26 15:24:00,46.5,24.1,30.30,NNW,331,8.0,15.0,41,0.00,,SKC,0.00,306.00,VWS V14.01,2013-12-26 20:24:00,
2013-12-26 15:25:00,46.5,24.1,30.30,West,277,9.0,15.0,41,0.00,,SKC,0.00,302.00,VWS V14.01,2013-12-26 20:25:00,
2013-12-26 15:26:00,46.5,24.1,30.30,NW,322,7.0,15.0,41,0.00,,SKC,0.00,299.00,VWS V14.01,2013-12-26 20:26:00,
2013-12-26 15:27:00,46.5,24.1,30.30,West,270,7.0,15.0,41,0.00,,SKC,0.00,297.00,VWS V14.01,2013-12-26 20:27:00,
2013-12-26 15:29:00,46.5,24.1,30.30,West,264,5.0,15.0,41,0.00,,SKC,0.00,292.00,VWS V14.01,2013-12-26 20:29:00,
2013-12-26 15:30:00,46.5,24.1,30.30,WNW,284,3.0,15.0,41,0.00,,SKC,0.00,288.00,VWS V14.01,2013-12-26 20:30:00,
2013-12-26 15:31:00,46.5,24.1,30.30,WNW,282,2.0,15.0,41,0.00,,SKC,0.00,287.00,VWS V14.01,2013-12-26 20:31:00,
2013-12-26 15:32:00,46.6,24.2,30.30,WNW,283,7.0,8.0,41,0.00,,SKC,0.00,285.00,VWS V14.01,2013-12-26 20:32:00,
2013-12-26 15:34:00,46.5,24.1,30.30,WNW,290,4.0,10.0,41,0.00,,SKC,0.00,278.00,VWS V14.01,2013-12-26 20:34:00,
2013-12-26 15:35:00,46.6,24.2,30.30,WNW,295,4.0,10.0,41,0.00,,SKC,0.00,276.00,VWS V14.01,2013-12-26 20:35:00,
2013-12-26 15:37:00,46.6,24.2,30.30,West,273,5.0,10.0,41,0.00,,SKC,0.00,271.00,VWS V14.01,2013-12-26 20:37:00,
2013-12-26 15:38:00,46.7,24.3,30.30,WNW,292,3.0,10.0,41,0.00,,SKC,0.00,265.00,VWS V14.01,2013-12-26 20:38:00,
2013-12-26 15:39:00,46.7,24.3,30.30,West,278,5.0,10.0,41,0.00,,SKC,0.00,264.00,VWS V14.01,2013-12-26 20:39:00,
2013-12-26 15:40:00,46.7,23.7,30.30,West,263,6.0,10.0,40,0.00,,SKC,0.00,262.00,VWS V14.01,2013-12-26 20:40:00,
2013-12-26 15:42:00,46.7,24.3,30.30,WNW,294,2.0,10.0,41,0.00,,SKC,0.00,257.00,VWS V14.01,2013-12-26 20:42:00,
2013-12-26 15:44:00,46.8,24.4,30.30,WNW,298,3.0,10.0,41,0.00,,SKC,0.00,251.00,VWS V14.01,2013-12-26 20:44:00,
2013-12-26 15:45:00,46.7,23.7,30.30,NNW,333,5.0,10.0,40,0.00,,SKC,0.00,248.00,VWS V14.01,2013-12-26 20:45:00,
2013-12-26 15:47:00,46.7,24.3,30.30,NNW,331,2.0,10.0,41,0.00,,SKC,0.00,244.00,VWS V14.01,2013-12-26 20:47:00,
2013-12-26 15:49:00,46.8,24.4,30.31,North,350,6.0,10.0,41,0.00,,SKC,0.00,236.00,VWS V14.01,2013-12-26 20:49:00,
2013-12-26 15:50:00,46.8,24.4,30.31,North,355,5.0,10.0,41,0.00,,SKC,0.00,234.00,VWS V14.01,2013-12-26 20:50:00,
2013-12-26 15:52:00,46.7,23.7,30.31,North,350,8.0,12.0,40,0.00,,SKC,0.00,227.00,VWS V14.01,2013-12-26 20:52:00,
2013-12-26 15:54:00,46.5,23.5,30.31,North,355,7.0,12.0,40,0.00,,SKC,0.00,218.00,VWS V14.01,2013-12-26 20:54:00,
2013-12-26 15:55:00,46.4,23.4,30.31,NNW,334,6.0,12.0,40,0.00,,SKC,0.00,211.00,VWS V14.01,2013-12-26 20:55:00,
2013-12-26 15:56:00,46.4,23.4,30.31,NW,326,5.0,12.0,40,0.00,,SKC,0.00,211.00,VWS V14.01,2013-12-26 20:56:00,
2013-12-26 15:57:00,46.3,23.3,30.31,NNW,346,7.0,12.0,40,0.00,,SKC,0.00,209.00,VWS V14.01,2013-12-26 20:57:00,
2013-12-26 16:00:00,46.2,23.8,30.31,NNW,347,6.0,12.0,41,0.00,,SKC,0.00,197.00,VWS V14.01,2013-12-26 21:00:00,
2013-12-26 16:01:00,46.2,23.8,30.31,NNW,336,6.0,12.0,41,0.00,,SKC,0.00,193.00,VWS V14.01,2013-12-26 21:01:00,
2013-12-26 16:02:00,46.2,23.2,30.31,WSW,246,5.0,9.0,40,0.00,,SKC,0.00,190.00,VWS V14.01,2013-12-26 21:02:00,
2013-12-26 16:06:00,46.1,23.1,30.31,NNW,336,8.0,11.0,40,0.00,,SKC,0.00,179.00,VWS V14.01,2013-12-26 21:06:00,
2013-12-26 16:08:00,46.0,22.5,30.31,NNW,339,9.0,11.0,39,0.00,,SKC,0.00,169.00,VWS V14.01,2013-12-26 21:08:00,
2013-12-26 16:11:00,46.0,22.5,30.31,NW,319,5.0,12.0,39,0.00,,SKC,0.00,158.00,VWS V14.01,2013-12-26 21:11:00,
2013-12-26 16:12:00,46.0,22.5,30.31,NNW,340,4.0,12.0,39,0.00,,SKC,0.00,158.00,VWS V14.01,2013-12-26 21:12:00,
2013-12-26 16:13:00,46.0,22.5,30.31,NNW,338,5.0,12.0,39,0.00,,SKC,0.00,153.00,VWS V14.01,2013-12-26 21:13:00,
2013-12-26 16:16:00,45.8,22.9,30.31,NNW,343,5.0,12.0,40,0.00,,SKC,0.00,139.00,VWS V14.01,2013-12-26 21:16:00,
2013-12-26 16:17:00,45.8,22.9,30.31,NNW,343,7.0,12.0,40,0.00,,SKC,0.00,139.00,VWS V14.01,2013-12-26 21:17:00,
2013-12-26 16:18:00,45.8,22.3,30.31,NNW,347,6.0,12.0,39,0.00,,SKC,0.00,130.00,VWS V14.01,2013-12-26 21:18:00,
2013-12-26 16:19:00,45.8,22.3,30.31,NNW,341,5.0,12.0,39,0.00,,SKC,0.00,121.00,VWS V14.01,2013-12-26 21:19:00,
2013-12-26 16:21:00,45.7,21.6,30.31,West,275,0.0,12.0,38,0.00,,SKC,0.00,111.00,VWS V14.01,2013-12-26 21:21:00,
2013-12-26 16:22:00,45.7,22.2,30.31,NW,325,4.0,12.0,39,0.00,,SKC,0.00,111.00,VWS V14.01,2013-12-26 21:22:00,
2013-12-26 16:23:00,45.6,21.5,30.31,NNW,344,7.0,12.0,38,0.00,,SKC,0.00,105.00,VWS V14.01,2013-12-26 21:23:00,
2013-12-26 16:24:00,45.6,20.2,30.31,NNW,332,2.0,12.0,36,0.00,,SKC,0.00,95.00,VWS V14.01,2013-12-26 21:24:00,
2013-12-26 16:25:00,45.6,20.2,30.31,NNW,342,5.0,12.0,36,0.00,,SKC,0.00,91.00,VWS V14.01,2013-12-26 21:25:00,
2013-12-26 16:26:00,45.4,20.7,30.31,NNW,339,7.0,12.0,37,0.00,,SKC,0.00,93.00,VWS V14.01,2013-12-26 21:26:00,
2013-12-26 16:27:00,45.5,20.8,30.31,NNW,341,3.0,12.0,37,0.00,,SKC,0.00,93.00,VWS V14.01,2013-12-26 21:27:00,
2013-12-26 16:29:00,45.4,20.7,30.31,WNW,300,8.0,12.0,37,0.00,,SKC,0.00,90.00,VWS V14.01,2013-12-26 21:29:00,
2013-12-26 16:30:00,45.3,19.9,30.31,NNW,342,4.0,12.0,36,0.00,,SKC,0.00,77.00,VWS V14.01,2013-12-26 21:30:00,
2013-12-26 16:31:00,45.3,20.6,30.31,NW,317,4.0,5.0,37,0.00,,SKC,0.00,72.00,VWS V14.01,2013-12-26 21:31:00,
2013-12-26 16:32:00,45.3,20.6,30.31,NW,317,4.0,5.0,37,0.00,,SKC,0.00,72.00,VWS V14.01,2013-12-26 21:32:00,
2013-12-26 16:34:00,45.1,20.4,30.32,NNW,338,3.0,7.0,37,0.00,,SKC,0.00,65.00,VWS V14.01,2013-12-26 21:34:00,
2013-12-26 16:35:00,45.1,20.4,30.32,NW,323,10.0,15.0,37,0.00,,SKC,0.00,54.00,VWS V14.01,2013-12-26 21:35:00,
2013-12-26 16:36:00,45.0,19.7,30.31,NNW,342,11.0,15.0,36,0.00,,SKC,0.00,56.00,VWS V14.01,2013-12-26 21:36:00,
2013-12-26 16:37:00,45.0,19.7,30.31,NNW,336,8.0,15.0,36,0.00,,SKC,0.00,56.00,VWS V14.01,2013-12-26 21:37:00,
2013-12-26 16:39:00,44.9,19.6,30.31,NNW,340,9.0,15.0,36,0.00,,SKC,0.00,53.00,VWS V14.01,2013-12-26 21:39:00,
2013-12-26 16:40:00,44.8,19.5,30.32,NNW,331,12.0,16.0,36,0.00,,SKC,0.00,46.00,VWS V14.01,2013-12-26 21:40:00,
2013-12-26 16:41:00,44.8,20.1,30.31,NNW,341,10.0,16.0,37,0.00,,SKC,0.00,42.00,VWS V14.01,2013-12-26 21:41:00,
2013-12-26 16:42:00,44.7,20.0,30.31,NNW,333,8.0,16.0,37,0.00,,SKC,0.00,37.00,VWS V14.01,2013-12-26 21:42:00,
2013-12-26 16:43:00,44.7,20.0,30.31,NNW,346,9.0,16.0,37,0.00,,SKC,0.00,33.00,VWS V14.01,2013-12-26 21:43:00,
2013-12-26 16:46:00,44.5,20.5,30.32,NNW,341,7.0,16.0,38,0.00,,SKC,0.00,19.00,VWS V14.01,2013-12-26 21:46:00,
2013-12-26 16:47:00,44.4,20.4,30.32,NW,326,10.0,16.0,38,0.00,,SKC,0.00,19.00,VWS V14.01,2013-12-26 21:47:00,
2013-12-26 16:48:00,44.3,20.3,30.32,NW,321,3.0,16.0,38,0.00,,SKC,0.00,18.00,VWS V14.01,2013-12-26 21:48:00,
2013-12-26 16:51:00,44.2,20.2,30.32,NNW,343,7.0,16.0,38,0.00,,SKC,0.00,14.00,VWS V14.01,2013-12-26 21:51:00,
2013-12-26 16:52:00,44.1,20.1,30.32,NNW,330,3.0,16.0,38,0.00,,SKC,0.00,14.00,VWS V14.01,2013-12-26 21:52:00,
2013-12-26 16:53:00,44.1,20.1,30.32,NNW,347,6.0,16.0,38,0.00,,SKC,0.00,12.00,VWS V14.01,2013-12-26 21:53:00,
2013-12-26 16:56:00,43.8,20.5,30.32,NNW,345,8.0,16.0,39,0.00,,SKC,0.00,11.00,VWS V14.01,2013-12-26 21:56:00,
2013-12-26 16:57:00,43.8,20.5,30.32,NNW,345,5.0,16.0,39,0.00,,SKC,0.00,11.00,VWS V14.01,2013-12-26 21:57:00,
2013-12-26 16:58:00,43.7,20.4,30.32,NNW,327,8.0,16.0,39,0.00,,SKC,0.00,9.00,VWS V14.01,2013-12-26 21:58:00,
2013-12-26 17:02:00,43.6,20.3,30.32,North,349,6.0,6.0,39,0.00,,SKC,0.00,7.00,VWS V14.01,2013-12-26 22:02:00,
2013-12-26 17:03:00,43.6,20.3,30.32,NW,306,8.0,8.0,39,0.00,,SKC,0.00,7.00,VWS V14.01,2013-12-26 22:03:00,
2013-12-26 17:04:00,43.5,20.2,30.32,NNW,346,6.0,9.0,39,0.00,,SKC,0.00,7.00,VWS V14.01,2013-12-26 22:04:00,
2013-12-26 17:07:00,43.4,20.1,30.33,NNW,329,4.0,9.0,39,0.00,,SKC,0.00,5.00,VWS V14.01,2013-12-26 22:07:00,
2013-12-26 17:08:00,43.4,20.1,30.33,NNW,329,3.0,9.0,39,0.00,,SKC,0.00,5.00,VWS V14.01,2013-12-26 22:08:00,
2013-12-26 17:09:00,43.4,20.1,30.33,NNW,329,4.0,9.0,39,0.00,,SKC,0.00,5.00,VWS V14.01,2013-12-26 22:09:00,
2013-12-26 17:12:00,43.3,20.6,30.33,NNW,329,3.0,9.0,40,0.00,,SKC,0.00,0.00,VWS V14.01,2013-12-26 22:12:00,
2013-12-26 17:13:00,43.3,20.6,30.33,NNW,329,2.0,9.0,40,0.00,,SKC,0.00,0.00,VWS V14.01,2013-12-26 22:13:00,
2013-12-26 17:14:00,43.2,20.5,30.33,NNW,329,4.0,9.0,40,0.00,,SKC,0.00,0.00,VWS V14.01,2013-12-26 22:14:00,
2013-12-26 17:17:00,43.0,19.8,30.33,NNW,330,3.0,9.0,39,0.00,,SKC,0.00,0.00,VWS V14.01,2013-12-26 22:17:00,
2013-12-26 17:18:00,43.0,19.8,30.33,NNW,330,4.0,9.0,39,0.00,,SKC,0.00,0.00,VWS V14.01,2013-12-26 22:18:00,
2013-12-26 17:19:00,42.9,20.3,30.33,NW,324,8.0,9.0,40,0.00,,SKC,0.00,0.00,VWS V14.01,2013-12-26 22:19:00,
2013-12-26 17:23:00,42.7,20.1,30.33,NW,307,2.0,9.0,40,0.00,,SKC,0.00,0.00,VWS V14.01,2013-12-26 22:23:00,
2013-12-26 17:24:00,42.6,20.0,30.33,NNW,336,4.0,9.0,40,0.00,,SKC,0.00,0.00,VWS V14.01,2013-12-26 22:24:00,
2013-12-26 17:28:00,42.5,19.9,30.33,NNW,336,1.0,9.0,40,0.00,,SKC,0.00,0.00,VWS V14.01,2013-12-26 22:28:00,
2013-12-26 17:29:00,42.5,19.9,30.34,NNW,336,3.0,9.0,40,0.00,,SKC,0.00,0.00,VWS V14.01,2013-12-26 22:29:00,
2013-12-26 17:30:00,42.5,19.9,30.34,NNW,336,2.0,9.0,40,0.00,,SKC,0.00,0.00,VWS V14.01,2013-12-26 22:30:00,
2013-12-26 17:33:00,42.4,19.8,30.34,NW,317,0.0,6.0,40,0.00,,SKC,0.00,0.00,VWS V14.01,2013-12-26 22:33:00,
2013-12-26 17:34:00,42.4,19.8,30.34,NW,317,1.0,6.0,40,0.00,,SKC,0.00,0.00,VWS V14.01,2013-12-26 22:34:00,
2013-12-26 17:35:00,42.3,19.7,30.34,NW,317,2.0,6.0,40,0.00,,SKC,0.00,0.00,VWS V14.01,2013-12-26 22:35:00,
2013-12-26 17:38:00,42.2,19.6,30.34,NW,314,1.0,6.0,40,0.00,,SKC,0.00,0.00,VWS V14.01,2013-12-26 22:38:00,
2013-12-26 17:39:00,42.2,19.6,30.34,NW,314,2.0,6.0,40,0.00,,SKC,0.00,0.00,VWS V14.01,2013-12-26 22:39:00,
2013-12-26 17:40:00,42.2,19.6,30.34,NW,314,3.0,6.0,40,0.00,,SKC,0.00,0.00,VWS V14.01,2013-12-26 22:40:00,
2013-12-26 17:43:00,42.0,19.5,30.34,NNW,338,3.0,6.0,40,0.00,,SKC,0.00,0.00,VWS V14.01,2013-12-26 22:43:00,
2013-12-26 17:44:00,42.0,19.5,30.34,NNW,338,3.0,6.0,40,0.00,,SKC,0.00,0.00,VWS V14.01,2013-12-26 22:44:00,
2013-12-26 17:45:00,41.9,19.9,30.34,NNW,338,4.0,6.0,41,0.00,,SKC,0.00,0.00,VWS V14.01,2013-12-26 22:45:00,
2013-12-26 17:46:00,41.9,19.9,30.34,NNW,338,4.0,6.0,41,0.00,,SKC,0.00,0.00,VWS V14.01,2013-12-26 22:46:00,
2013-12-26 17:48:00,41.8,19.8,30.34,NNW,337,2.0,6.0,41,0.00,,SKC,0.00,0.00,VWS V14.01,2013-12-26 22:48:00,
2013-12-26 17:49:00,41.7,19.8,30.34,NNW,338,1.0,6.0,41,0.00,,SKC,0.00,0.00,VWS V14.01,2013-12-26 22:49:00,
2013-12-26 17:51:00,41.6,19.7,30.34,NNW,331,4.0,6.0,41,0.00,,SKC,0.00,0.00,VWS V14.01,2013-12-26 22:51:00,
2013-12-26 17:53:00,41.5,19.0,30.35,NNW,339,7.0,8.0,40,0.00,,SKC,0.00,0.00,VWS V14.01,2013-12-26 22:53:00,
2013-12-26 17:54:00,41.5,19.0,30.35,NNW,336,5.0,9.0,40,0.00,,SKC,0.00,0.00,VWS V14.01,2013-12-26 22:54:00,
2013-12-26 17:56:00,41.5,18.4,30.35,NNW,340,7.0,9.0,39,0.00,,SKC,0.00,0.00,VWS V14.01,2013-12-26 22:56:00,
2013-12-26 17:58:00,41.5,18.4,30.35,NNW,333,6.0,9.0,39,0.00,,SKC,0.00,0.00,VWS V14.01,2013-12-26 22:58:00,
2013-12-26 17:59:00,41.5,19.0,30.35,NNW,333,5.0,9.0,40,0.00,,SKC,0.00,0.00,VWS V14.01,2013-12-26 22:59:00,
2013-12-26 18:00:00,41.5,19.0,30.35,NNW,332,4.0,9.0,40,0.00,,SKC,0.00,0.00,VWS V14.01,2013-12-26 23:00:00,
2013-12-26 18:01:00,41.5,19.6,30.35,NNW,329,4.0,4.0,41,0.00,,SKC,0.00,0.00,VWS V14.01,2013-12-26 23:01:00,
2013-12-26 18:02:00,41.5,19.6,30.35,NNW,329,5.0,5.0,41,0.00,,SKC,0.00,0.00,VWS V14.01,2013-12-26 23:02:00,
2013-12-26 18:04:00,41.4,18.9,30.35,NNW,328,6.0,6.0,40,0.00,,SKC,0.00,0.00,VWS V14.01,2013-12-26 23:04:00,
2013-12-26 18:05:00,41.4,18.9,30.35,NNW,328,3.0,6.0,40,0.00,,SKC,0.00,0.00,VWS V14.01,2013-12-26 23:05:00,
2013-12-26 18:06:00,41.3,18.8,30.35,NNW,328,0.0,6.0,40,0.00,,SKC,0.00,0.00,VWS V14.01,2013-12-26 23:06:00,
2013-12-26 18:07:00,41.3,18.8,30.35,NNW,328,0.0,6.0,40,0.00,,SKC,0.00,0.00,VWS V14.01,2013-12-26 23:07:00,
2013-12-26 18:09:00,41.2,19.3,30.35,NW,315,5.0,6.0,41,0.00,,SKC,0.00,0.00,VWS V14.01,2013-12-26 23:09:00,
2013-12-26 18:10:00,41.1,19.2,30.35,NW,314,3.0,6.0,41,0.00,,SKC,0.00,0.00,VWS V14.01,2013-12-26 23:10:00,
2013-12-26 18:11:00,41.0,18.5,30.35,NW,319,1.0,6.0,40,0.00,,SKC,0.00,0.00,VWS V14.01,2013-12-26 23:11:00,
2013-12-26 18:12:00,41.0,18.5,30.35,NW,319,5.0,6.0,40,0.00,,SKC,0.00,0.00,VWS V14.01,2013-12-26 23:12:00,
2013-12-26 18:14:00,40.9,19.0,30.35,NNW,335,4.0,7.0,41,0.00,,SKC,0.00,0.00,VWS V14.01,2013-12-26 23:14:00,
2013-12-26 18:16:00,40.8,18.4,30.35,NNW,336,1.0,7.0,40,0.00,,SKC,0.00,0.00,VWS V14.01,2013-12-26 23:16:00,
2013-12-26 18:17:00,40.7,18.3,30.35,NNW,336,2.0,7.0,40,0.00,,SKC,0.00,0.00,VWS V14.01,2013-12-26 23:17:00,
2013-12-26 18:19:00,40.6,18.8,30.36,NNW,329,5.0,7.0,41,0.00,,SKC,0.00,0.00,VWS V14.01,2013-12-26 23:19:00,
2013-12-26 18:21:00,40.6,18.8,30.36,NNW,332,5.0,7.0,41,0.00,,SKC,0.00,0.00,VWS V14.01,2013-12-26 23:21:00,
2013-12-26 18:22:00,40.5,18.7,30.36,NNW,336,7.0,8.0,41,0.00,,SKC,0.00,0.00,VWS V14.01,2013-12-26 23:22:00,
2013-12-26 18:23:00,40.4,18.0,30.36,NNW,338,5.0,8.0,40,0.00,,SKC,0.00,0.00,VWS V14.01,2013-12-26 23:23:00,
2013-12-26 18:24:00,40.4,18.0,30.36,NNW,341,4.0,8.0,40,0.00,,SKC,0.00,0.00,VWS V14.01,2013-12-26 23:24:00,
2013-12-26 18:26:00,40.4,18.0,30.36,NNW,327,3.0,8.0,40,0.00,,SKC,0.00,0.00,VWS V14.01,2013-12-26 23:26:00,
2013-12-26 18:27:00,40.4,18.0,30.36,NW,323,4.0,8.0,40,0.00,,SKC,0.00,0.00,VWS V14.01,2013-12-26 23:27:00,
2013-12-26 18:28:00,40.4,17.4,30.36,NW,319,1.0,8.0,39,0.00,,SKC,0.00,0.00,VWS V14.01,2013-12-26 23:28:00,
2013-12-26 18:30:00,40.4,17.4,30.36,NW,314,4.0,8.0,39,0.00,,SKC,0.00,0.00,VWS V14.01,2013-12-26 23:30:00,
2013-12-26 18:31:00,40.5,17.5,30.36,North,355,5.0,8.0,39,0.00,,SKC,0.00,0.00,VWS V14.01,2013-12-26 23:31:00,
2013-12-26 18:32:00,40.5,18.1,30.36,North,355,3.0,5.0,40,0.00,,SKC,0.00,0.00,VWS V14.01,2013-12-26 23:32:00,
2013-12-26 18:33:00,40.4,18.0,30.36,North,355,3.0,5.0,40,0.00,,SKC,0.00,0.00,VWS V14.01,2013-12-26 23:33:00,
2013-12-26 18:35:00,40.3,17.3,30.37,NNW,333,2.0,5.0,39,0.00,,SKC,0.00,0.00,VWS V14.01,2013-12-26 23:35:00,
2013-12-26 18:36:00,40.3,17.9,30.37,NNW,333,3.0,5.0,40,0.00,,SKC,0.00,0.00,VWS V14.01,2013-12-26 23:36:00,
2013-12-26 18:37:00,40.2,17.8,30.37,NNW,333,5.0,5.0,40,0.00,,SKC,0.00,0.00,VWS V14.01,2013-12-26 23:37:00,
2013-12-26 18:39:00,40.1,17.7,30.37,NNW,333,5.0,5.0,40,0.00,,SKC,0.00,0.00,VWS V14.01,2013-12-26 23:39:00,
2013-12-26 18:40:00,40.1,17.7,30.37,NNW,333,3.0,5.0,40,0.00,,SKC,0.00,0.00,VWS V14.01,2013-12-26 23:40:00,
2013-12-26 18:41:00,40.0,17.1,30.37,NNW,331,4.0,7.0,39,0.00,,SKC,0.00,0.00,VWS V14.01,2013-12-26 23:41:00,
2013-12-26 18:42:00,40.0,17.1,30.37,NNW,331,3.0,7.0,39,0.00,,SKC,0.00,0.00,VWS V14.01,2013-12-26 23:42:00,
2013-12-26 18:43:00,40.0,17.6,30.37,NNW,333,7.0,7.0,40,0.00,,SKC,0.00,0.00,VWS V14.01,2013-12-26 23:43:00,
2013-12-26 18:44:00,40.0,17.6,30.37,NNW,335,4.0,7.0,40,0.00,,SKC,0.00,0.00,VWS V14.01,2013-12-26 23:44:00,
2013-12-26 18:45:00,40.0,17.6,30.37,NNW,335,5.0,7.0,40,0.00,,SKC,0.00,0.00,VWS V14.01,2013-12-26 23:45:00,
2013-12-26 18:46:00,40.0,17.1,30.37,NNW,333,5.0,7.0,39,0.00,,SKC,0.00,0.00,VWS V14.01,2013-12-26 23:46:00,
2013-12-26 18:47:00,40.0,17.1,30.37,NNW,333,4.0,7.0,39,0.00,,SKC,0.00,0.00,VWS V14.01,2013-12-26 23:47:00,
2013-12-26 18:48:00,40.1,17.1,30.37,NNW,333,3.0,7.0,39,0.00,,SKC,0.00,0.00,VWS V14.01,2013-12-26 23:48:00,
2013-12-26 18:49:00,40.1,17.1,30.37,NNW,333,4.0,7.0,39,0.00,,SKC,0.00,0.00,VWS V14.01,2013-12-26 23:49:00,
2013-12-26 18:50:00,40.1,17.1,30.37,NNW,333,3.0,7.0,39,0.00,,SKC,0.00,0.00,VWS V14.01,2013-12-26 23:50:00,
2013-12-26 18:52:00,40.1,17.1,30.38,NNW,333,3.0,7.0,39,0.00,,SKC,0.00,0.00,VWS V14.01,2013-12-26 23:52:00,
2013-12-26 18:53:00,40.2,17.8,30.38,NNW,328,5.0,7.0,40,0.00,,SKC,0.00,0.00,VWS V14.01,2013-12-26 23:53:00,
2013-12-26 18:54:00,40.1,18.3,30.38,NNW,327,4.0,7.0,41,0.00,,SKC,0.00,0.00,VWS V14.01,2013-12-26 23:54:00,
2013-12-26 18:55:00,40.1,18.3,30.38,NNW,327,4.0,7.0,41,0.00,,SKC,0.00,0.00,VWS V14.01,2013-12-26 23:55:00,
2013-12-26 18:57:00,40.0,17.6,30.38,NNW,329,1.0,7.0,40,0.00,,SKC,0.00,0.00,VWS V14.01,2013-12-26 23:57:00,
2013-12-26 18:58:00,39.9,18.1,30.38,NNW,329,4.0,7.0,41,0.00,,SKC,0.00,0.00,VWS V14.01,2013-12-26 23:58:00,
2013-12-26 18:59:00,39.9,18.1,30.38,NNW,329,3.0,7.0,41,0.00,,SKC,0.00,0.00,VWS V14.01,2013-12-26 23:59:00,
2013-12-26 19:00:00,39.8,18.0,30.38,NNW,329,3.0,7.0,41,0.00,,SKC,0.00,0.00,VWS V14.01,2013-12-27 00:00:00,
2013-12-26 19:02:00,39.7,18.0,30.38,NNW,329,2.0,3.0,41,0.00,,SKC,0.00,0.00,VWS V14.01,2013-12-27 00:02:00,
2013-12-26 19:03:00,39.7,17.4,30.38,NNW,329,1.0,3.0,40,0.00,,SKC,0.00,0.00,VWS V14.01,2013-12-27 00:03:00,
2013-12-26 19:04:00,39.7,18.0,30.38,NNW,329,1.0,3.0,41,0.00,,SKC,0.00,0.00,VWS V14.01,2013-12-27 00:04:00,
2013-12-26 19:05:00,39.6,17.9,30.38,NNW,329,3.0,3.0,41,0.00,,SKC,0.00,0.00,VWS V14.01,2013-12-27 00:05:00,
2013-12-26 19:07:00,39.4,18.2,30.39,NNW,329,2.0,3.0,42,0.00,,SKC,0.00,0.00,VWS V14.01,2013-12-27 00:07:00,
2013-12-26 19:08:00,39.2,18.6,30.39,NNW,333,3.0,6.0,43,0.00,,SKC,0.00,0.00,VWS V14.01,2013-12-27 00:08:00,
2013-12-26 19:09:00,39.2,18.0,30.38,NNW,333,3.0,6.0,42,0.00,,SKC,0.00,0.00,VWS V14.01,2013-12-27 00:09:00,
2013-12-26 19:11:00,38.9,19.4,30.38,NNW,333,3.0,6.0,45,0.00,,SKC,0.00,0.00,VWS V14.01,2013-12-27 00:11:00,
2013-12-26 19:12:00,38.8,18.8,30.39,NNW,333,3.0,6.0,44,0.00,,SKC,0.00,0.00,VWS V14.01,2013-12-27 00:12:00,
2013-12-26 19:14:00,38.5,18.5,30.39,NNW,333,4.0,6.0,44,0.00,,SKC,0.00,0.00,VWS V14.01,2013-12-27 00:14:00,
2013-12-26 19:15:00,38.4,19.4,30.39,NNW,333,3.0,6.0,46,0.00,,SKC,0.00,0.00,VWS V14.01,2013-12-27 00:15:00,
2013-12-26 19:16:00,38.3,18.8,30.39,NNW,333,2.0,6.0,45,0.00,,SKC,0.00,0.00,VWS V14.01,2013-12-27 00:16:00,
2013-12-26 19:17:00,38.2,18.8,30.39,NNW,333,2.0,6.0,45,0.00,,SKC,0.00,0.00,VWS V14.01,2013-12-27 00:17:00,
2013-12-26 19:19:00,38.1,18.6,30.39,NNW,333,1.0,6.0,45,0.00,,SKC,0.00,0.00,VWS V14.01,2013-12-27 00:19:00,
2013-12-26 19:21:00,37.9,19.0,30.39,NW,312,4.0,6.0,46,0.00,,SKC,0.00,0.00,VWS V14.01,2013-12-27 00:21:00,
2013-12-26 19:22:00,37.9,19.0,30.39,NW,310,4.0,6.0,46,0.00,,SKC,0.00,0.00,VWS V14.01,2013-12-27 00:22:00,
2013-12-26 19:24:00,37.7,18.8,30.39,NW,312,0.0,6.0,46,0.00,,SKC,0.00,0.00,VWS V14.01,2013-12-27 00:24:00,
2013-12-26 19:25:00,37.6,18.7,30.39,NW,312,0.0,6.0,46,0.00,,SKC,0.00,0.00,VWS V14.01,2013-12-27 00:25:00,
2013-12-26 19:26:00,37.5,18.6,30.39,NW,312,1.0,6.0,46,0.00,,SKC,0.00,0.00,VWS V14.01,2013-12-27 00:26:00,
2013-12-26 19:27:00,37.5,18.6,30.39,NW,312,1.0,6.0,46,0.00,,SKC,0.00,0.00,VWS V14.01,2013-12-27 00:27:00,
2013-12-26 19:29:00,37.3,18.9,30.39,NW,312,2.0,6.0,47,0.00,,SKC,0.00,0.00,VWS V14.01,2013-12-27 00:29:00,
2013-12-26 19:30:00,37.3,18.9,30.39,NW,312,1.0,6.0,47,0.00,,SKC,0.00,0.00,VWS V14.01,2013-12-27 00:30:00,
2013-12-26 19:32:00,37.1,18.8,30.39,NW,312,3.0,3.0,47,0.00,,SKC,0.00,0.00,VWS V14.01,2013-12-27 00:32:00,
2013-12-26 19:34:00,37.1,17.7,30.39,NW,313,2.0,5.0,45,0.00,,SKC,0.00,0.00,VWS V14.01,2013-12-27 00:34:00,
2013-12-26 19:35:00,37.0,18.2,30.39,NW,313,4.0,5.0,46,0.00,,SKC,0.00,0.00,VWS V14.01,2013-12-27 00:35:00,
2013-12-26 19:37:00,36.9,18.1,30.39,NW,313,2.0,5.0,46,0.00,,SKC,0.00,0.00,VWS V14.01,2013-12-27 00:37:00,
2013-12-26 19:39:00,36.8,18.0,30.39,NW,313,3.0,5.0,46,0.00,,SKC,0.00,0.00,VWS V14.01,2013-12-27 00:39:00,
2013-12-26 19:41:00,36.8,18.0,30.39,NW,313,1.0,5.0,46,0.00,,SKC,0.00,0.00,VWS V14.01,2013-12-27 00:41:00,
2013-12-26 19:42:00,36.8,18.0,30.39,NW,313,1.0,5.0,46,0.00,,SKC,0.00,0.00,VWS V14.01,2013-12-27 00:42:00,
2013-12-26 19:43:00,36.8,18.0,30.39,NW,313,3.0,5.0,46,0.00,,SKC,0.00,0.00,VWS V14.01,2013-12-27 00:43:00,
2013-12-26 19:44:00,36.6,19.3,30.39,NW,313,0.0,5.0,49,0.00,,SKC,0.00,0.00,VWS V14.01,2013-12-27 00:44:00,
2013-12-26 19:46:00,36.5,18.7,30.39,NW,313,2.0,5.0,48,0.00,,SKC,0.00,0.00,VWS V14.01,2013-12-27 00:46:00,
2013-12-26 19:47:00,36.4,18.1,30.39,NW,313,0.0,5.0,47,0.00,,SKC,0.00,0.00,VWS V14.01,2013-12-27 00:47:00,
2013-12-26 19:48:00,36.4,18.6,30.39,NW,313,0.0,5.0,48,0.00,,SKC,0.00,0.00,VWS V14.01,2013-12-27 00:48:00,
2013-12-26 19:49:00,36.4,18.1,30.39,NW,313,0.0,5.0,47,0.00,,SKC,0.00,0.00,VWS V14.01,2013-12-27 00:49:00,
2013-12-26 19:51:00,36.4,19.1,30.39,NW,313,0.0,5.0,49,0.00,,SKC,0.00,0.00,VWS V14.01,2013-12-27 00:51:00,
2013-12-26 19:52:00,36.4,19.1,30.39,NW,313,0.0,5.0,49,0.00,,SKC,0.00,0.00,VWS V14.01,2013-12-27 00:52:00,
2013-12-26 19:53:00,36.3,18.5,30.39,NW,313,1.0,5.0,48,0.00,,SKC,0.00,0.00,VWS V14.01,2013-12-27 00:53:00,
2013-12-26 19:54:00,36.3,18.5,30.39,NW,313,1.0,5.0,48,0.00,,SKC,0.00,0.00,VWS V14.01,2013-12-27 00:54:00,
2013-12-26 19:55:00,36.2,18.9,30.39,NW,313,1.0,5.0,49,0.00,,SKC,0.00,0.00,VWS V14.01,2013-12-27 00:55:00,
2013-12-26 19:57:00,36.2,17.9,30.39,NW,313,1.0,5.0,47,0.00,,SKC,0.00,0.00,VWS V14.01,2013-12-27 00:57:00,
2013-12-26 19:58:00,36.2,17.9,30.39,NW,313,1.0,5.0,47,0.00,,SKC,0.00,0.00,VWS V14.01,2013-12-27 00:58:00,
2013-12-26 19:59:00,36.2,18.4,30.39,NW,313,1.0,5.0,48,0.00,,SKC,0.00,0.00,VWS V14.01,2013-12-27 00:59:00,
2013-12-26 20:00:00,36.2,17.9,30.40,NW,313,4.0,5.0,47,0.00,,SKC,0.00,0.00,VWS V14.01,2013-12-27 01:00:00,
2013-12-26 20:02:00,36.0,19.2,30.40,NW,313,2.0,4.0,50,0.00,,SKC,0.00,0.00,VWS V14.01,2013-12-27 01:02:00,
2013-12-26 20:03:00,36.0,18.7,30.40,NW,313,2.0,4.0,49,0.00,,SKC,0.00,0.00,VWS V14.01,2013-12-27 01:03:00,
2013-12-26 20:04:00,35.9,18.6,30.40,NW,313,2.0,4.0,49,0.00,,SKC,0.00,0.00,VWS V14.01,2013-12-27 01:04:00,
2013-12-26 20:05:00,35.9,18.6,30.40,NW,313,1.0,4.0,49,0.00,,SKC,0.00,0.00,VWS V14.01,2013-12-27 01:05:00,
2013-12-26 20:08:00,35.7,18.0,30.39,NW,313,2.0,4.0,48,0.00,,SKC,0.00,0.00,VWS V14.01,2013-12-27 01:08:00,
2013-12-26 20:09:00,35.7,18.0,30.39,NW,313,2.0,4.0,48,0.00,,SKC,0.00,0.00,VWS V14.01,2013-12-27 01:09:00,
2013-12-26 20:10:00,35.7,18.4,30.39,NW,313,1.0,4.0,49,0.00,,SKC,0.00,0.00,VWS V14.01,2013-12-27 01:10:00,
2013-12-26 20:11:00,35.6,18.8,30.39,NW,313,1.0,4.0,50,0.00,,SKC,0.00,0.00,VWS V14.01,2013-12-27 01:11:00,
2013-12-26 20:13:00,35.6,18.3,30.39,NW,313,1.0,4.0,49,0.00,,SKC,0.00,0.00,VWS V14.01,2013-12-27 01:13:00,
2013-12-26 20:15:00,35.5,18.2,30.40,NW,313,2.0,4.0,49,0.00,,SKC,0.00,0.00,VWS V14.01,2013-12-27 01:15:00,
2013-12-26 20:16:00,35.5,18.2,30.39,NW,313,2.0,4.0,49,0.00,,SKC,0.00,0.00,VWS V14.01,2013-12-27 01:16:00,
2013-12-26 20:18:00,35.2,18.0,30.40,NW,313,2.0,4.0,49,0.00,,SKC,0.00,0.00,VWS V14.01,2013-12-27 01:18:00,
2013-12-26 20:19:00,35.3,18.1,30.40,NW,313,1.0,4.0,49,0.00,,SKC,0.00,0.00,VWS V14.01,2013-12-27 01:19:00,
2013-12-26 20:20:00,35.2,18.0,30.40,NW,313,0.0,4.0,49,0.00,,SKC,0.00,0.00,VWS V14.01,2013-12-27 01:20:00,
2013-12-26 20:21:00,35.2,18.0,30.40,NW,313,0.0,4.0,49,0.00,,SKC,0.00,0.00,VWS V14.01,2013-12-27 01:21:00,
2013-12-26 20:24:00,35.1,17.9,30.40,NW,313,2.0,4.0,49,0.00,,SKC,0.00,0.00,VWS V14.01,2013-12-27 01:24:00,
2013-12-26 20:26:00,35.0,18.2,30.40,NW,313,0.0,4.0,50,0.00,,SKC,0.00,0.00,VWS V14.01,2013-12-27 01:26:00,
2013-12-26 20:29:00,35.0,18.2,30.40,NW,313,1.0,4.0,50,0.00,,SKC,0.00,0.00,VWS V14.01,2013-12-27 01:29:00,
2013-12-26 20:30:00,34.9,18.2,30.40,NW,313,0.0,4.0,50,0.00,,SKC,0.00,0.00,VWS V14.01,2013-12-27 01:30:00,
2013-12-26 20:31:00,34.9,18.2,30.40,NW,313,2.0,4.0,50,0.00,,SKC,0.00,0.00,VWS V14.01,2013-12-27 01:31:00,
2013-12-26 20:34:00,34.7,18.4,30.40,NW,313,0.0,2.0,51,0.00,,SKC,0.00,0.00,VWS V14.01,2013-12-27 01:34:00,
2013-12-26 20:35:00,34.6,18.8,30.40,NW,313,0.0,2.0,52,0.00,,SKC,0.00,0.00,VWS V14.01,2013-12-27 01:35:00,
2013-12-26 20:36:00,34.5,19.1,30.40,NW,313,2.0,4.0,53,0.00,,SKC,0.00,0.00,VWS V14.01,2013-12-27 01:36:00,
2013-12-26 20:37:00,34.4,19.0,30.40,NW,313,3.0,4.0,53,0.00,,SKC,0.00,0.00,VWS V14.01,2013-12-27 01:37:00,
2013-12-26 20:38:00,34.1,19.2,30.41,NW,313,2.0,4.0,54,0.00,,SKC,0.00,0.00,VWS V14.01,2013-12-27 01:38:00,
2013-12-26 20:39:00,33.8,19.8,30.40,NW,313,2.0,4.0,56,0.00,,SKC,0.00,0.00,VWS V14.01,2013-12-27 01:39:00,
2013-12-26 20:40:00,33.5,19.1,30.40,NW,313,3.0,4.0,55,0.00,,SKC,0.00,0.00,VWS V14.01,2013-12-27 01:40:00,
2013-12-26 20:41:00,33.2,19.2,30.40,NW,313,0.0,4.0,56,0.00,,SKC,0.00,0.00,VWS V14.01,2013-12-27 01:41:00,
2013-12-26 20:42:00,33.2,19.2,30.40,NW,313,0.0,4.0,56,0.00,,SKC,0.00,0.00,VWS V14.01,2013-12-27 01:42:00,
2013-12-26 20:43:00,32.9,19.4,30.41,NW,313,1.0,4.0,57,0.00,,SKC,0.00,0.00,VWS V14.01,2013-12-27 01:43:00,
2013-12-26 20:44:00,32.8,19.7,30.41,NW,313,2.0,4.0,58,0.00,,SKC,0.00,0.00,VWS V14.01,2013-12-27 01:44:00,
2013-12-26 20:45:00,32.8,19.7,30.41,NW,313,2.0,4.0,58,0.00,,SKC,0.00,0.00,VWS V14.01,2013-12-27 01:45:00,
2013-12-26 20:46:00,32.8,18.8,30.41,NW,313,3.0,4.0,56,0.00,,SKC,0.00,0.00,VWS V14.01,2013-12-27 01:46:00,
2013-12-26 20:47:00,32.9,18.5,30.41,NW,313,2.0,4.0,55,0.00,,SKC,0.00,0.00,VWS V14.01,2013-12-27 01:47:00,
2013-12-26 20:48:00,33.0,18.2,30.41,NW,313,1.0,4.0,54,0.00,,SKC,0.00,0.00,VWS V14.01,2013-12-27 01:48:00,
2013-12-26 20:49:00,33.4,18.6,30.41,NW,313,3.0,4.0,54,0.00,,SKC,0.00,0.00,VWS V14.01,2013-12-27 01:49:00,
2013-12-26 20:50:00,33.5,18.6,30.41,NW,313,4.0,4.0,54,0.00,,SKC,0.00,0.00,VWS V14.01,2013-12-27 01:50:00,
2013-12-26 20:51:00,34.6,19.2,30.41,NW,313,2.0,4.0,53,0.00,,SKC,0.00,0.00,VWS V14.01,2013-12-27 01:51:00,
2013-12-26 20:52:00,34.6,19.2,30.41,NW,313,1.0,4.0,53,0.00,,SKC,0.00,0.00,VWS V14.01,2013-12-27 01:52:00,
2013-12-26 20:53:00,34.7,19.8,30.41,NW,313,1.0,4.0,54,0.00,,SKC,0.00,0.00,VWS V14.01,2013-12-27 01:53:00,
2013-12-26 20:54:00,34.7,19.3,30.41,NW,313,2.0,4.0,53,0.00,,SKC,0.00,0.00,VWS V14.01,2013-12-27 01:54:00,
2013-12-26 20:55:00,34.8,19.4,30.41,NW,313,1.0,4.0,53,0.00,,SKC,0.00,0.00,VWS V14.01,2013-12-27 01:55:00,
2013-12-26 20:56:00,34.8,18.5,30.41,NW,313,0.0,4.0,51,0.00,,SKC,0.00,0.00,VWS V14.01,2013-12-27 01:56:00,
2013-12-26 20:57:00,34.9,18.6,30.41,NW,313,0.0,4.0,51,0.00,,SKC,0.00,0.00,VWS V14.01,2013-12-27 01:57:00,
2013-12-26 20:58:00,35.1,18.4,30.41,NW,313,2.0,4.0,50,0.00,,SKC,0.00,0.00,VWS V14.01,2013-12-27 01:58:00,
2013-12-26 21:00:00,35.1,19.3,30.41,NW,313,1.0,4.0,52,0.00,,SKC,0.00,0.00,VWS V14.01,2013-12-27 02:00:00,
2013-12-26 21:01:00,35.0,20.0,30.41,NW,313,1.0,4.0,54,0.00,,SKC,0.00,0.00,VWS V14.01,2013-12-27 02:01:00,
2013-12-26 21:02:00,35.0,20.0,30.41,NW,313,0.0,1.0,54,0.00,,SKC,0.00,0.00,VWS V14.01,2013-12-27 02:02:00,
2013-12-26 21:03:00,34.8,19.9,30.41,NW,313,0.0,1.0,54,0.00,,SKC,0.00,0.00,VWS V14.01,2013-12-27 02:03:00,
2013-12-26 21:05:00,34.6,18.8,30.41,NW,313,0.0,1.0,52,0.00,,SKC,0.00,0.00,VWS V14.01,2013-12-27 02:05:00,
2013-12-26 21:06:00,34.5,18.7,30.41,NW,313,0.0,1.0,52,0.00,,SKC,0.00,0.00,VWS V14.01,2013-12-27 02:06:00,
2013-12-26 21:07:00,34.5,18.7,30.41,NW,313,2.0,2.0,52,0.00,,SKC,0.00,0.00,VWS V14.01,2013-12-27 02:07:00,
2013-12-26 21:08:00,34.4,18.6,30.41,NW,313,0.0,2.0,52,0.00,,SKC,0.00,0.00,VWS V14.01,2013-12-27 02:08:00,
2013-12-26 21:11:00,34.2,19.7,30.41,NW,313,0.0,3.0,55,0.00,,SKC,0.00,0.00,VWS V14.01,2013-12-27 02:11:00,
2013-12-26 21:12:00,34.1,19.6,30.41,NW,313,0.0,3.0,55,0.00,,SKC,0.00,0.00,VWS V14.01,2013-12-27 02:12:00,
2013-12-26 21:13:00,34.0,19.5,30.41,NW,313,0.0,3.0,55,0.00,,SKC,0.00,0.00,VWS V14.01,2013-12-27 02:13:00,
2013-12-26 21:14:00,33.9,19.0,30.42,NW,313,4.0,4.0,54,0.00,,SKC,0.00,0.00,VWS V14.01,2013-12-27 02:14:00,
2013-12-26 21:16:00,33.4,19.4,30.42,NW,310,1.0,5.0,56,0.00,,SKC,0.00,0.00,VWS V14.01,2013-12-27 02:16:00,
2013-12-26 21:17:00,33.2,19.2,30.42,NW,310,1.0,5.0,56,0.00,,SKC,0.00,0.00,VWS V14.01,2013-12-27 02:17:00,
2013-12-26 21:18:00,33.1,18.7,30.41,NW,310,0.0,5.0,55,0.00,,SKC,0.00,0.00,VWS V14.01,2013-12-27 02:18:00,
2013-12-26 21:19:00,33.0,18.2,30.41,NW,310,2.0,5.0,54,0.00,,SKC,0.00,0.00,VWS V14.01,2013-12-27 02:19:00,
2013-12-26 21:21:00,33.0,18.6,30.41,NW,313,4.0,5.0,55,0.00,,SKC,0.00,0.00,VWS V14.01,2013-12-27 02:21:00,
2013-12-26 21:22:00,33.0,19.0,30.41,NW,313,3.0,5.0,56,0.00,,SKC,0.00,0.00,VWS V14.01,2013-12-27 02:22:00,
2013-12-26 21:23:00,32.9,19.4,30.42,NW,313,3.0,5.0,57,0.00,,SKC,0.00,0.00,VWS V14.01,2013-12-27 02:23:00,
2013-12-26 21:24:00,32.8,18.4,30.42,NW,313,0.0,5.0,55,0.00,,SKC,0.00,0.00,VWS V14.01,2013-12-27 02:24:00,
2013-12-26 21:25:00,32.8,18.4,30.42,NW,313,1.0,5.0,55,0.00,,SKC,0.00,0.00,VWS V14.01,2013-12-27 02:25:00,
2013-12-26 21:26:00,32.9,18.1,30.42,NW,313,2.0,5.0,54,0.00,,SKC,0.00,0.00,VWS V14.01,2013-12-27 02:26:00,
2013-12-26 21:27:00,33.0,18.6,30.42,NW,313,2.0,5.0,55,0.00,,SKC,0.00,0.00,VWS V14.01,2013-12-27 02:27:00,
2013-12-26 21:28:00,33.0,18.6,30.42,NW,313,1.0,5.0,55,0.00,,SKC,0.00,0.00,VWS V14.01,2013-12-27 02:28:00,
2013-12-26 21:30:00,33.0,18.6,30.42,NW,313,1.0,5.0,55,0.00,,SKC,0.00,0.00,VWS V14.01,2013-12-27 02:30:00,
2013-12-26 21:32:00,33.0,19.4,30.42,NW,313,3.0,3.0,57,0.00,,SKC,0.00,0.00,VWS V14.01,2013-12-27 02:32:00,
2013-12-26 21:33:00,32.9,19.4,30.42,NW,313,2.0,3.0,57,0.00,,SKC,0.00,0.00,VWS V14.01,2013-12-27 02:33:00,
2013-12-26 21:35:00,32.8,18.8,30.42,NW,313,2.0,4.0,56,0.00,,SKC,0.00,0.00,VWS V14.01,2013-12-27 02:35:00,
2013-12-26 21:37:00,32.8,18.8,30.42,NW,313,2.0,4.0,56,0.00,,SKC,0.00,0.00,VWS V14.01,2013-12-27 02:37:00,
2013-12-26 21:38:00,32.8,18.8,30.42,NW,313,3.0,4.0,56,0.00,,SKC,0.00,0.00,VWS V14.01,2013-12-27 02:38:00,
2013-12-26 21:39:00,32.8,18.4,30.42,NW,313,2.0,4.0,55,0.00,,SKC,0.00,0.00,VWS V14.01,2013-12-27 02:39:00,
2013-12-26 21:40:00,32.8,18.8,30.42,NW,313,2.0,4.0,56,0.00,,SKC,0.00,0.00,VWS V14.01,2013-12-27 02:40:00,
2013-12-26 21:42:00,32.8,18.8,30.42,NW,313,2.0,4.0,56,0.00,,SKC,0.00,0.00,VWS V14.01,2013-12-27 02:42:00,
2013-12-26 21:43:00,32.9,18.5,30.42,NW,313,2.0,4.0,55,0.00,,SKC,0.00,0.00,VWS V14.01,2013-12-27 02:43:00,
2013-12-26 21:44:00,32.9,18.5,30.42,NW,313,1.0,4.0,55,0.00,,SKC,0.00,0.00,VWS V14.01,2013-12-27 02:44:00,
2013-12-26 21:46:00,33.0,18.2,30.42,NW,313,1.0,4.0,54,0.00,,SKC,0.00,0.00,VWS V14.01,2013-12-27 02:46:00,
2013-12-26 21:47:00,33.0,18.6,30.42,NW,313,3.0,4.0,55,0.00,,SKC,0.00,0.00,VWS V14.01,2013-12-27 02:47:00,
2013-12-26 21:48:00,33.0,19.0,30.42,NW,313,3.0,4.0,56,0.00,,SKC,0.00,0.00,VWS V14.01,2013-12-27 02:48:00,
2013-12-26 21:49:00,33.0,19.0,30.42,NW,313,3.0,4.0,56,0.00,,SKC,0.00,0.00,VWS V14.01,2013-12-27 02:49:00,
2013-12-26 21:51:00,32.9,18.1,30.42,NW,313,2.0,4.0,54,0.00,,SKC,0.00,0.00,VWS V14.01,2013-12-27 02:51:00,
2013-12-26 21:53:00,32.8,18.0,30.42,NW,313,1.0,4.0,54,0.00,,SKC,0.00,0.00,VWS V14.01,2013-12-27 02:53:00,
2013-12-26 21:54:00,32.9,17.7,30.42,NW,313,2.0,4.0,53,0.00,,SKC,0.00,0.00,VWS V14.01,2013-12-27 02:54:00,
2013-12-26 21:56:00,32.9,18.5,30.42,NW,313,3.0,4.0,55,0.00,,SKC,0.00,0.00,VWS V14.01,2013-12-27 02:56:00,
2013-12-26 21:58:00,32.9,18.5,30.42,NW,313,4.0,4.0,55,0.00,,SKC,0.00,0.00,VWS V14.01,2013-12-27 02:58:00,
2013-12-26 21:59:00,33.0,18.6,30.42,NW,313,2.0,4.0,55,0.00,,SKC,0.00,0.00,VWS V14.01,2013-12-27 02:59:00,
2013-12-26 22:00:00,33.0,18.6,30.42,NW,313,2.0,4.0,55,0.00,,SKC,0.00,0.00,VWS V14.01,2013-12-27 03:00:00,
2013-12-26 22:01:00,33.0,18.6,30.42,NW,313,2.0,2.0,55,0.00,,SKC,0.00,0.00,VWS V14.01,2013-12-27 03:01:00,
2013-12-26 22:03:00,32.9,19.4,30.42,NW,313,4.0,4.0,57,0.00,,SKC,0.00,0.00,VWS V14.01,2013-12-27 03:03:00,
2013-12-26 22:04:00,32.9,19.4,30.42,NW,313,2.0,4.0,57,0.00,,SKC,0.00,0.00,VWS V14.01,2013-12-27 03:04:00,
2013-12-26 22:05:00,32.9,18.9,30.42,NW,313,1.0,4.0,56,0.00,,SKC,0.00,0.00,VWS V14.01,2013-12-27 03:05:00,
2013-12-26 22:06:00,32.8,18.4,30.42,NW,313,3.0,4.0,55,0.00,,SKC,0.00,0.00,VWS V14.01,2013-12-27 03:06:00,
2013-12-26 22:08:00,32.8,18.4,30.42,NW,313,3.0,4.0,55,0.00,,SKC,0.00,0.00,VWS V14.01,2013-12-27 03:08:00,
2013-12-26 22:10:00,32.7,18.8,30.42,NW,313,4.0,5.0,56,0.00,,SKC,0.00,0.00,VWS V14.01,2013-12-27 03:10:00,
2013-12-26 22:11:00,32.7,19.2,30.42,NW,313,2.0,5.0,57,0.00,,SKC,0.00,0.00,VWS V14.01,2013-12-27 03:11:00,
2013-12-26 22:12:00,32.6,19.1,30.42,NW,313,1.0,5.0,57,0.00,,SKC,0.00,0.00,VWS V14.01,2013-12-27 03:12:00,
2013-12-26 22:13:00,32.6,18.2,30.42,NW,313,2.0,5.0,55,0.00,,SKC,0.00,0.00,VWS V14.01,2013-12-27 03:13:00,
2013-12-26 22:15:00,32.7,17.5,30.42,NW,313,0.0,5.0,53,0.00,,SKC,0.00,0.00,VWS V14.01,2013-12-27 03:15:00,
2013-12-26 22:16:00,32.7,17.5,30.42,NW,313,0.0,5.0,53,0.00,,SKC,0.00,0.00,VWS V14.01,2013-12-27 03:16:00,
2013-12-26 22:17:00,32.8,17.6,30.42,NW,313,1.0,5.0,53,0.00,,SKC,0.00,0.00,VWS V14.01,2013-12-27 03:17:00,
2013-12-26 22:18:00,33.0,18.6,30.42,NW,313,3.0,5.0,55,0.00,,SKC,0.00,0.00,VWS V14.01,2013-12-27 03:18:00,
2013-12-26 22:20:00,32.9,19.8,30.42,NW,313,4.0,5.0,58,0.00,,SKC,0.00,0.00,VWS V14.01,2013-12-27 03:20:00,
2013-12-26 22:21:00,32.8,19.7,30.42,NW,313,2.0,5.0,58,0.00,,SKC,0.00,0.00,VWS V14.01,2013-12-27 03:21:00,
2013-12-26 22:22:00,32.8,18.4,30.42,NW,313,3.0,5.0,55,0.00,,SKC,0.00,0.00,VWS V14.01,2013-12-27 03:22:00,
2013-12-26 22:23:00,32.8,18.4,30.42,NW,313,2.0,5.0,55,0.00,,SKC,0.00,0.00,VWS V14.01,2013-12-27 03:23:00,
2013-12-26 22:25:00,32.9,18.5,30.42,NW,313,2.0,5.0,55,0.00,,SKC,0.00,0.00,VWS V14.01,2013-12-27 03:25:00,
2013-12-26 22:26:00,33.0,18.6,30.42,NW,313,3.0,5.0,55,0.00,,SKC,0.00,0.00,VWS V14.01,2013-12-27 03:26:00,
2013-12-26 22:27:00,33.1,19.1,30.42,NW,313,3.0,5.0,56,0.00,,SKC,0.00,0.00,VWS V14.01,2013-12-27 03:27:00,
2013-12-26 22:28:00,33.1,19.1,30.42,NW,313,2.0,5.0,56,0.00,,SKC,0.00,0.00,VWS V14.01,2013-12-27 03:28:00,
2013-12-26 22:30:00,33.0,19.4,30.42,NW,313,3.0,5.0,57,0.00,,SKC,0.00,0.00,VWS V14.01,2013-12-27 03:30:00,
2013-12-26 22:31:00,32.9,18.9,30.42,NW,313,3.0,3.0,56,0.00,,SKC,0.00,0.00,VWS V14.01,2013-12-27 03:31:00,
2013-12-26 22:33:00,32.8,18.4,30.42,NW,313,3.0,3.0,55,0.00,,SKC,0.00,0.00,VWS V14.01,2013-12-27 03:33:00,
2013-12-26 22:34:00,32.8,18.4,30.42,NW,313,3.0,3.0,55,0.00,,SKC,0.00,0.00,VWS V14.01,2013-12-27 03:34:00,
2013-12-26 22:35:00,32.8,18.8,30.42,NW,313,3.0,4.0,56,0.00,,SKC,0.00,0.00,VWS V14.01,2013-12-27 03:35:00,
2013-12-26 22:37:00,32.7,19.2,30.42,NW,313,2.0,4.0,57,0.00,,SKC,0.00,0.00,VWS V14.01,2013-12-27 03:37:00,
2013-12-26 22:38:00,32.7,18.8,30.42,NW,313,3.0,4.0,56,0.00,,SKC,0.00,0.00,VWS V14.01,2013-12-27 03:38:00,
2013-12-26 22:39:00,32.7,18.8,30.42,NW,313,3.0,4.0,56,0.00,,SKC,0.00,0.00,VWS V14.01,2013-12-27 03:39:00,
2013-12-26 22:40:00,32.6,19.1,30.42,NW,313,2.0,4.0,57,0.00,,SKC,0.00,0.00,VWS V14.01,2013-12-27 03:40:00,
2013-12-26 22:42:00,32.6,18.7,30.42,NW,313,2.0,4.0,56,0.00,,SKC,0.00,0.00,VWS V14.01,2013-12-27 03:42:00,
2013-12-26 22:43:00,32.5,18.6,30.42,NW,313,0.0,4.0,56,0.00,,SKC,0.00,0.00,VWS V14.01,2013-12-27 03:43:00,
2013-12-26 22:44:00,32.5,18.6,30.42,NW,313,0.0,4.0,56,0.00,,SKC,0.00,0.00,VWS V14.01,2013-12-27 03:44:00,
2013-12-26 22:45:00,32.4,19.3,30.42,NW,313,0.0,4.0,58,0.00,,SKC,0.00,0.00,VWS V14.01,2013-12-27 03:45:00,
2013-12-26 22:47:00,32.1,19.4,30.42,NW,313,1.0,4.0,59,0.00,,SKC,0.00,0.00,VWS V14.01,2013-12-27 03:47:00,
2013-12-26 22:48:00,31.6,20.1,30.42,NW,313,0.0,4.0,62,0.00,,SKC,0.00,0.00,VWS V14.01,2013-12-27 03:48:00,
2013-12-26 22:49:00,31.5,20.0,30.42,NW,313,0.0,4.0,62,0.00,,SKC,0.00,0.00,VWS V14.01,2013-12-27 03:49:00,
2013-12-26 22:50:00,31.1,20.0,30.42,NW,313,0.0,4.0,63,0.00,,SKC,0.00,0.00,VWS V14.01,2013-12-27 03:50:00,
2013-12-26 22:52:00,30.3,20.0,30.42,NW,313,0.0,4.0,65,0.00,,SKC,0.00,0.00,VWS V14.01,2013-12-27 03:52:00,
2013-12-26 22:54:00,29.9,19.9,30.42,NW,313,0.0,4.0,66,0.00,,SKC,0.00,0.00,VWS V14.01,2013-12-27 03:54:00,
2013-12-26 22:55:00,29.8,19.8,30.42,NW,313,0.0,4.0,66,0.00,,SKC,0.00,0.00,VWS V14.01,2013-12-27 03:55:00,
2013-12-26 22:56:00,29.7,20.1,30.42,NW,313,0.0,4.0,67,0.00,,SKC,0.00,0.00,VWS V14.01,2013-12-27 03:56:00,
2013-12-26 22:58:00,29.5,19.9,30.42,NW,313,0.0,4.0,67,0.00,,SKC,0.00,0.00,VWS V14.01,2013-12-27 03:58:00,
2013-12-26 22:59:00,29.5,19.9,30.42,NW,313,0.0,4.0,67,0.00,,SKC,0.00,0.00,VWS V14.01,2013-12-27 03:59:00,
2013-12-26 23:00:00,29.5,19.9,30.42,NW,313,0.0,4.0,67,0.00,,SKC,0.00,0.00,VWS V14.01,2013-12-27 04:00:00,
2013-12-26 23:01:00,29.5,19.6,30.42,NW,313,0.0,0.0,66,0.00,,SKC,0.00,0.00,VWS V14.01,2013-12-27 04:01:00,
2013-12-26 23:03:00,29.5,19.6,30.42,NW,313,0.0,0.0,66,0.00,,SKC,0.00,0.00,VWS V14.01,2013-12-27 04:03:00,
2013-12-26 23:04:00,29.5,19.6,30.42,NW,313,0.0,0.0,66,0.00,,SKC,0.00,0.00,VWS V14.01,2013-12-27 04:04:00,
2013-12-26 23:05:00,29.6,19.6,30.42,NW,313,0.0,0.0,66,0.00,,SKC,0.00,0.00,VWS V14.01,2013-12-27 04:05:00,
2013-12-26 23:06:00,29.6,19.6,30.42,NW,313,1.0,1.0,66,0.00,,SKC,0.00,0.00,VWS V14.01,2013-12-27 04:06:00,
2013-12-26 23:07:00,29.6,19.6,30.42,NW,313,0.0,2.0,66,0.00,,SKC,0.00,0.00,VWS V14.01,2013-12-27 04:07:00,
2013-12-26 23:09:00,29.5,19.9,30.42,NW,313,1.0,2.0,67,0.00,,SKC,0.00,0.00,VWS V14.01,2013-12-27 04:09:00,
2013-12-26 23:10:00,29.5,19.6,30.42,NW,313,1.0,2.0,66,0.00,,SKC,0.00,0.00,VWS V14.01,2013-12-27 04:10:00,
2013-12-26 23:11:00,29.4,19.5,30.42,NW,313,0.0,2.0,66,0.00,,SKC,0.00,0.00,VWS V14.01,2013-12-27 04:11:00,
2013-12-26 23:12:00,29.4,19.5,30.42,NW,313,0.0,2.0,66,0.00,,SKC,0.00,0.00,VWS V14.01,2013-12-27 04:12:00,
2013-12-26 23:14:00,29.3,19.7,30.43,NW,313,2.0,2.0,67,0.00,,SKC,0.00,0.00,VWS V14.01,2013-12-27 04:14:00,
2013-12-26 23:15:00,29.3,19.7,30.43,NW,313,1.0,2.0,67,0.00,,SKC,0.00,0.00,VWS V14.01,2013-12-27 04:15:00,
2013-12-26 23:16:00,29.3,19.7,30.43,NW,313,1.0,2.0,67,0.00,,SKC,0.00,0.00,VWS V14.01,2013-12-27 04:16:00,
2013-12-26 23:18:00,29.3,19.7,30.43,NW,313,1.0,2.0,67,0.00,,SKC,0.00,0.00,VWS V14.01,2013-12-27 04:18:00,
2013-12-26 23:19:00,29.4,19.8,30.43,NW,313,1.0,2.0,67,0.00,,SKC,0.00,0.00,VWS V14.01,2013-12-27 04:19:00,
2013-12-26 23:20:00,29.4,19.8,30.43,NW,313,0.0,2.0,67,0.00,,SKC,0.00,0.00,VWS V14.01,2013-12-27 04:20:00,
2013-12-26 23:21:00,29.4,19.8,30.43,NW,313,1.0,2.0,67,0.00,,SKC,0.00,0.00,VWS V14.01,2013-12-27 04:21:00,
2013-12-26 23:22:00,29.5,19.9,30.43,NW,313,2.0,3.0,67,0.00,,SKC,0.00,0.00,VWS V14.01,2013-12-27 04:22:00,
2013-12-26 23:23:00,29.5,19.9,30.43,NW,313,2.0,3.0,67,0.00,,SKC,0.00,0.00,VWS V14.01,2013-12-27 04:23:00,
2013-12-26 23:25:00,29.6,20.0,30.43,NW,313,0.0,3.0,67,0.00,,SKC,0.00,0.00,VWS V14.01,2013-12-27 04:25:00,
2013-12-26 23:26:00,29.6,20.0,30.43,NW,313,0.0,3.0,67,0.00,,SKC,0.00,0.00,VWS V14.01,2013-12-27 04:26:00,
2013-12-26 23:27:00,29.6,20.0,30.43,NW,313,0.0,3.0,67,0.00,,SKC,0.00,0.00,VWS V14.01,2013-12-27 04:27:00,
2013-12-26 23:28:00,29.6,20.4,30.43,NW,313,1.0,3.0,68,0.00,,SKC,0.00,0.00,VWS V14.01,2013-12-27 04:28:00,
2013-12-26 23:30:00,29.4,20.2,30.43,NW,313,0.0,3.0,68,0.00,,SKC,0.00,0.00,VWS V14.01,2013-12-27 04:30:00,
2013-12-26 23:31:00,29.4,20.2,30.43,NW,313,0.0,3.0,68,0.00,,SKC,0.00,0.00,VWS V14.01,2013-12-27 04:31:00,
2013-12-26 23:32:00,29.4,20.2,30.43,NW,313,1.0,1.0,68,0.00,,SKC,0.00,0.00,VWS V14.01,2013-12-27 04:32:00,
2013-12-26 23:33:00,29.4,19.8,30.43,NW,313,1.0,1.0,67,0.00,,SKC,0.00,0.00,VWS V14.01,2013-12-27 04:33:00,
2013-12-26 23:35:00,29.3,19.7,30.43,NW,313,0.0,2.0,67,0.00,,SKC,0.00,0.00,VWS V14.01,2013-12-27 04:35:00,
2013-12-26 23:36:00,29.2,19.6,30.43,NW,313,0.0,2.0,67,0.00,,SKC,0.00,0.00,VWS V14.01,2013-12-27 04:36:00,
2013-12-26 23:38:00,29.2,19.6,30.43,NW,313,0.0,2.0,67,0.00,,SKC,0.00,0.00,VWS V14.01,2013-12-27 04:38:00,
2013-12-26 23:41:00,29.1,19.5,30.43,NW,313,0.0,2.0,67,0.00,,SKC,0.00,0.00,VWS V14.01,2013-12-27 04:41:00,
2013-12-26 23:43:00,29.0,19.4,30.43,NW,313,0.0,2.0,67,0.00,,SKC,0.00,0.00,VWS V14.01,2013-12-27 04:43:00,
2013-12-26 23:44:00,28.9,19.7,30.43,NW,313,0.0,2.0,68,0.00,,SKC,0.00,0.00,VWS V14.01,2013-12-27 04:44:00,
2013-12-26 23:46:00,28.9,19.3,30.43,NW,313,0.0,2.0,67,0.00,,SKC,0.00,0.00,VWS V14.01,2013-12-27 04:46:00,
2013-12-26 23:48:00,28.8,19.6,30.43,NW,313,1.0,2.0,68,0.00,,SKC,0.00,0.00,VWS V14.01,2013-12-27 04:48:00,
2013-12-26 23:49:00,28.8,19.6,30.43,NW,313,1.0,2.0,68,0.00,,SKC,0.00,0.00,VWS V14.01,2013-12-27 04:49:00,
2013-12-26 23:51:00,28.7,19.5,30.43,NW,313,1.0,2.0,68,0.00,,SKC,0.00,0.00,VWS V14.01,2013-12-27 04:51:00,
2013-12-26 23:52:00,28.7,19.5,30.43,NW,313,2.0,2.0,68,0.00,,SKC,0.00,0.00,VWS V14.01,2013-12-27 04:52:00,
2013-12-26 23:53:00,28.6,19.4,30.43,NW,313,0.0,2.0,68,0.00,,SKC,0.00,0.00,VWS V14.01,2013-12-27 04:53:00,
2013-12-26 23:54:00,28.6,19.0,30.43,NW,313,0.0,2.0,67,0.00,,SKC,0.00,0.00,VWS V14.01,2013-12-27 04:54:00,
2013-12-26 23:56:00,28.5,19.0,30.43,NW,313,1.0,2.0,67,0.00,,SKC,0.00,0.00,VWS V14.01,2013-12-27 04:56:00,
2013-12-26 23:57:00,28.5,19.0,30.43,NW,313,2.0,2.0,67,0.00,,SKC,0.00,0.00,VWS V14.01,2013-12-27 04:57:00,
2013-12-26 23:58:00,28.5,19.0,30.43,NW,313,1.0,2.0,67,0.00,,SKC,0.00,0.00,VWS V14.01,2013-12-27 04:58:00,
2013-12-26 23:59:00,28.4,18.9,30.43,NW,313,2.0,2.0,67,0.00,,SKC,0.00,0.00,VWS V14.01,2013-12-27 04:59:00,